LiveATC.Net - Listen to live air traffic control over the Internet!

Find LiveATC Audio Streams


Airport/ARTCC Code

Frequency
(e.g., 124.400, 128.75)
Site-wide search

Browse LiveATC Feeds
LiveATC Coverage Map
Top 50 LiveATC Feeds
Bad Weather Areas

LiveATC FAQ
Offer a LiveATC Feed
Contact LiveATC.net
Press Inquiries

LiveATC on iPhone
LiveATC on Android

Windows Phone
Windows 8/10

LiveATC Mobile
(Mobile browser)

ATC Audio Archives
Interesting Recordings

LiveATC Forums

Home Page
About LiveATC.net
Make a Donation
LiveATC Store

Terms of Use
Privacy Policy

Canadian Air Freqs

AIRMETs/SIGMETs

FAA Airport Status
Nat'l Airspace Status
Arrival Demand Charts


Server Software By:
Icecast.org
Liquidsoap

Select an area of interest:
U.S. Feeds: Class B Airports | Class C Airports | Class D/Other Airports | ARTCC (Centers)
International Feeds: Canada | Europe | Oceania | Asia | South America | North/Central America | Africa
Misc Feeds: HF Feeds
Search by ICAO/IATA airport code:   (e.g., kbos, kjfk, lax, eham, etc.)


Currently Available Live Feeds: 1414
Status Updated: Fri Jul 29 2016 00:15:01 UTC


NOTICE

Unauthorized use prohibited. See LiveATC.net Terms of Service

Europe Airport Feeds

 

EBBR Arrival (Archives)
Brussels, Belgium

Feed Status: UP

Click on your favorite media player to listen:
Listen with WinAmp to EBBR Arrival  Listen with iTunes to EBBR Arrival  Click here to listen if using Real Player  Click here to listen if using Windows Media Player

Or simply listen in your browser:

Listen right in your browser(in browser, requires Flash)

EBBR 282350Z 21006KT 7000 SCT006 BKN008 16/15 Q1014 TEMPO 3000 RA SHRA BKN007 BKN014

EBBR Flight Activity (Flightaware)

Listeners: 0 out of 926 total

Brussels Arrival: 118.250

EBBR Center (East) (Archives)
Brussels, Belgium

Feed Status: UP

Click on your favorite media player to listen:
Listen with WinAmp to EBBR Center (East)  Listen with iTunes to EBBR Center (East)  Click here to listen if using Real Player  Click here to listen if using Windows Media Player

Or simply listen in your browser:

Listen right in your browser(in browser, requires Flash)

EBBR 282350Z 21006KT 7000 SCT006 BKN008 16/15 Q1014 TEMPO 3000 RA SHRA BKN007 BKN014

EBBR Flight Activity (Flightaware)

Listeners: 0 out of 926 total

Brussels Center (East Sector): 128.200

EBBR Center (West) (Archives)
Brussels, Belgium

Feed Status: UP

Click on your favorite media player to listen:
Listen with WinAmp to EBBR Center (West)  Listen with iTunes to EBBR Center (West)  Click here to listen if using Real Player  Click here to listen if using Windows Media Player

Or simply listen in your browser:

Listen right in your browser(in browser, requires Flash)

EBBR 282350Z 21006KT 7000 SCT006 BKN008 16/15 Q1014 TEMPO 3000 RA SHRA BKN007 BKN014

EBBR Flight Activity (Flightaware)

Listeners: 0 out of 926 total

Brussels Center (West Sector): 131.100

EBBR Tower (East/Rwy 25L) (Archives)
Brussels, Belgium

Feed Status: UP

Click on your favorite media player to listen:
Listen with WinAmp to EBBR Tower (East/Rwy 25L)  Listen with iTunes to EBBR Tower (East/Rwy 25L)  Click here to listen if using Real Player  Click here to listen if using Windows Media Player

Or simply listen in your browser:

Listen right in your browser(in browser, requires Flash)

EBBR 282350Z 21006KT 7000 SCT006 BKN008 16/15 Q1014 TEMPO 3000 RA SHRA BKN007 BKN014

EBBR Flight Activity (Flightaware)

Listeners: 0 out of 926 total

Brussels Tower (East): 118.600

EBBR Tower (West/Rwy 25R/01/19) (Archives)
Brussels, Belgium

Feed Status: UP

Click on your favorite media player to listen:
Listen with WinAmp to EBBR Tower (West/Rwy 25R/01/19)  Listen with iTunes to EBBR Tower (West/Rwy 25R/01/19)  Click here to listen if using Real Player  Click here to listen if using Windows Media Player

Or simply listen in your browser:

Listen right in your browser(in browser, requires Flash)

EBBR 282350Z 21006KT 7000 SCT006 BKN008 16/15 Q1014 TEMPO 3000 RA SHRA BKN007 BKN014

EBBR Flight Activity (Flightaware)

Listeners: 0 out of 926 total

Brussels Tower (West): 120.775

EBGB CTAF (Archives)
Brussels, Belgium

Feed Status: UP

Click on your favorite media player to listen:
Listen with WinAmp to EBGB CTAF  Listen with iTunes to EBGB CTAF  Click here to listen if using Real Player  Click here to listen if using Windows Media Player

Or simply listen in your browser:

Listen right in your browser(in browser, requires Flash)

EBGB Flight Activity (Flightaware)

Listeners: 0 out of 926 total

Grimbergen CTAF: 119.500

EFKU Tower/Approach (Archives)
Siilinjarvi, Finland

Feed Status: UP

Click on your favorite media player to listen:
Listen with WinAmp to EFKU Tower/Approach  Listen with iTunes to EFKU Tower/Approach  Click here to listen if using Real Player  Click here to listen if using Windows Media Player

Or simply listen in your browser:

Listen right in your browser(in browser, requires Flash)

EFKU 282350Z AUTO 16006KT 9999 -RA OVC087 17/15 Q1011

EFKU Flight Activity (Flightaware)

Listeners: 1 out of 926 total

Kuopio Approach: 130.600
Kuopio Tower: 120.150

EHAA Radar ARTIP
Amsterdam, Netherlands

Feed Status: DOWN
Offline since: 2016-07-29 00:08:03 UTC
EHAM 282355Z 20008KT 9999 FEW014 BKN045 16/15 Q1012 TEMPO 6000 DZRA BKN012

EHAA Radar Sector 1 ARTIP: 120.5500

EHAA Radar East Inbound
Amsterdam, Netherlands

Feed Status: DOWN
Offline since: 2016-07-29 00:08:03 UTC
EHAM 282355Z 20008KT 9999 FEW014 BKN045 16/15 Q1012 TEMPO 6000 DZRA BKN012

EHAA Radar Sector 2 East Inbound: 128.5750

EHAA Radar East Outbound
Amsterdam, Netherlands

Feed Status: DOWN
Offline since: 2016-07-29 00:08:03 UTC
EHAM 282355Z 20008KT 9999 FEW014 BKN045 16/15 Q1012 TEMPO 6000 DZRA BKN012

EHAA Radar Sector 2 East Outbound: 124.875

EHAA Radar North
Amsterdam, Netherlands

Feed Status: DOWN
Offline since: 2016-07-29 00:13:03 UTC
EHAM 282355Z 20008KT 9999 FEW014 BKN045 16/15 Q1012 TEMPO 6000 DZRA BKN012

EHAA Radar Sector 1 North: 134.375

EHAA Radar Northwest
Amsterdam, Netherlands

Feed Status: DOWN
Offline since: 2016-07-29 00:08:03 UTC
EHAM 282355Z 20008KT 9999 FEW014 BKN045 16/15 Q1012 TEMPO 6000 DZRA BKN012

EHAA Radar Sector 5 Northwest: 123.7000

EHAA Radar RIVER
Amsterdam, Netherlands

Feed Status: DOWN
Offline since: 2016-07-29 00:08:03 UTC
EHAM 282355Z 20008KT 9999 FEW014 BKN045 16/15 Q1012 TEMPO 6000 DZRA BKN012

EHAA Radar Sector 3 RIVER: 130.9500

EHAA Radar South
Amsterdam, Netherlands

Feed Status: DOWN
Offline since: 2016-07-29 00:08:03 UTC
EHAM 282355Z 20008KT 9999 FEW014 BKN045 16/15 Q1012 TEMPO 6000 DZRA BKN012

EHAA Radar Sector 3 South: 123.8500

EHAA Radar South (Backup)
Amsterdam, Netherlands

Feed Status: DOWN
Offline since: 2016-07-29 00:08:03 UTC
EHAM 282355Z 20008KT 9999 FEW014 BKN045 16/15 Q1012 TEMPO 6000 DZRA BKN012

EHAA Radar Sector 3 South Backup : 127.775

EHAA Radar Southwest
Amsterdam, Netherlands

Feed Status: DOWN
Offline since: 2016-07-29 00:09:03 UTC
EHAM 282355Z 20008KT 9999 FEW014 BKN045 16/15 Q1012 TEMPO 6000 DZRA BKN012

EHAA Radar Sector 4 Southwest: 125.7500

EHAA Radar SUGOL
Amsterdam, Netherlands

Feed Status: DOWN
Offline since: 2016-07-29 00:08:03 UTC
EHAM 282355Z 20008KT 9999 FEW014 BKN045 16/15 Q1012 TEMPO 6000 DZRA BKN012

EHAA Radar Sector 5 SUGOL: 118.8000

EHAM Airside Ops Mgr (AOM)
Amsterdam, Netherlands

Feed Status: DOWN
Offline since: 2016-07-29 00:08:03 UTC
EHAM 282355Z 20008KT 9999 FEW014 BKN045 16/15 Q1012 TEMPO 6000 DZRA BKN012

Schiphol Airside Operations Manager: 130.475

EHAM App/Dep Backup
Amsterdam, Netherlands

Feed Status: DOWN
Offline since: 2016-07-29 00:09:03 UTC
EHAM 282355Z 20008KT 9999 FEW014 BKN045 16/15 Q1012 TEMPO 6000 DZRA BKN012

Schiphol App/Dep Backup: 118.075

EHAM App/Dep TMA East
Amsterdam, Netherlands

Feed Status: DOWN
Offline since: 2016-07-29 00:11:02 UTC
EHAM 282355Z 20008KT 9999 FEW014 BKN045 16/15 Q1012 TEMPO 6000 DZRA BKN012

Amsterdam Approach/Departure TMA East: 119.050

EHAM App/Dep TMA West
Amsterdam, Netherlands

Feed Status: DOWN
Offline since: 2016-07-29 00:13:03 UTC
EHAM 282355Z 20008KT 9999 FEW014 BKN045 16/15 Q1012 TEMPO 6000 DZRA BKN012

Amsterdam Approach/Departure TMA West: 121.200

EHAM Approach/Departure (Archives)
Amsterdam, Netherlands

Feed Status: UP

Click on your favorite media player to listen:
Listen with WinAmp to EHAM Approach/Departure  Listen with iTunes to EHAM Approach/Departure  Click here to listen if using Real Player  Click here to listen if using Windows Media Player

Or simply listen in your browser:

Listen right in your browser(in browser, requires Flash)

EHAM 282355Z 20008KT 9999 FEW014 BKN045 16/15 Q1012 TEMPO 6000 DZRA BKN012

EHAM Flight Activity (Flightaware)

Listeners: 1 out of 926 total

Schiphol Approach: 121.200
Schiphol Departure: 119.050

EHAM Apron (North)
Amsterdam, Netherlands

Feed Status: DOWN
Offline since: 2016-07-29 00:09:03 UTC
EHAM 282355Z 20008KT 9999 FEW014 BKN045 16/15 Q1012 TEMPO 6000 DZRA BKN012

Schiphol Apron (North): 121.875

EHAM Apron (South)
Amsterdam, Netherlands

Feed Status: DOWN
Offline since: 2016-07-29 00:08:03 UTC
EHAM 282355Z 20008KT 9999 FEW014 BKN045 16/15 Q1012 TEMPO 6000 DZRA BKN012

Schiphol Apron (South): 121.775

EHAM Arrival (Primary)
Amsterdam, Netherlands

Feed Status: DOWN
Offline since: 2016-07-29 00:10:03 UTC
EHAM 282355Z 20008KT 9999 FEW014 BKN045 16/15 Q1012 TEMPO 6000 DZRA BKN012

Amsterdam Arrival : 118.400

EHAM Arrival (Secondary)
Amsterdam, Netherlands

Feed Status: DOWN
Offline since: 2016-07-29 00:08:03 UTC
EHAM 282355Z 20008KT 9999 FEW014 BKN045 16/15 Q1012 TEMPO 6000 DZRA BKN012

Amsterdam Arrival (Secondary): 131.150

EHAM Arrival (Secondary/Backup)
Amsterdam, Netherlands

Feed Status: DOWN
Offline since: 2016-07-29 00:08:03 UTC
EHAM 282355Z 20008KT 9999 FEW014 BKN045 16/15 Q1012 TEMPO 6000 DZRA BKN012

Amsterdam Arrival (Secondary Backup): 131.275

EHAM Arrival Backup/Discrete
Amsterdam, Netherlands

Feed Status: DOWN
Offline since: 2016-07-29 00:08:03 UTC
EHAM 282355Z 20008KT 9999 FEW014 BKN045 16/15 Q1012 TEMPO 6000 DZRA BKN012

Schiphol Arrival Backup: 126.675

EHAM Clearance Delivery
Amsterdam, Netherlands

Feed Status: DOWN
Offline since: 2016-07-29 00:08:03 UTC
EHAM 282355Z 20008KT 9999 FEW014 BKN045 16/15 Q1012 TEMPO 6000 DZRA BKN012

Schiphol Clearance Delivery: 121.980

EHAM Company Channels
Amsterdam, Netherlands

Feed Status: DOWN
Offline since: 2016-07-21 12:48:02 UTC
EHAM 282355Z 20008KT 9999 FEW014 BKN045 16/15 Q1012 TEMPO 6000 DZRA BKN012

Aviapartner Amsterdam: 131.575
Aviapartner cargo operations (v/h Aeroground): 131.850
British airways engineering: 131.550
EL-AL operations/groundcrew: 131.500
Japan Airlines, Politie Luchtvaart Dienst Operations: 131.600
Jet Netherlands Schiphol-Oost: 131.565
KLC Operations (F100) (E190): 131.450
KLC Operations (F70): 131.975
KLM Dispatch/Flow control (slotcoordinatie): 131.435
KLM Jet Center: 121.925
KLM Maintenance: 131.940
KLM Operations (flightwatch): 131.650
KLM Team Leiders Operatie B/C/D (EUR): 131.425
KLM Team Leiders Operatie E/F/G (ICA): 131.415
LVNL Testvluchten: 122.750
MartinAir Maintenance Ops: 131.475
Martinair Operations: 131.925
Menzies operations: 131.800
Nayak aircraft maintenance: 131.750
Swissport Cargo: 131.665
Telnet avionics operations: 131.735
Transavia operations/maintenance: 131.900
TUI Arke Fly operations: 131.685

EHAM Ground
Amsterdam, Netherlands

Feed Status: DOWN
Offline since: 2016-06-19 18:18:03 UTC
EHAM 282355Z 20008KT 9999 FEW014 BKN045 16/15 Q1012 TEMPO 6000 DZRA BKN012

Schiphol Ground: 121.975
Schiphol Ground (North): 121.800
Schiphol Ground (South): 121.700
Schiphol Ground (Startup): 121.650
Schiphol Ground (West): 121.900

EHAM Ground (Backup)
Amsterdam, Netherlands

Feed Status: DOWN
Offline since: 2016-07-29 00:13:03 UTC
EHAM 282355Z 20008KT 9999 FEW014 BKN045 16/15 Q1012 TEMPO 6000 DZRA BKN012

Schiphol Ground (Backup): 122.425

EHAM Ground (North)
Amsterdam, Netherlands

Feed Status: DOWN
Offline since: 2016-07-29 00:09:03 UTC
EHAM 282355Z 20008KT 9999 FEW014 BKN045 16/15 Q1012 TEMPO 6000 DZRA BKN012

Schiphol Ground (North): 121.805

EHAM Ground (South)
Amsterdam, Netherlands

Feed Status: DOWN
Offline since: 2016-07-29 00:08:03 UTC
EHAM 282355Z 20008KT 9999 FEW014 BKN045 16/15 Q1012 TEMPO 6000 DZRA BKN012

Schiphol Ground (South): 121.705

EHAM Ground (West)
Amsterdam, Netherlands

Feed Status: DOWN
Offline since: 2016-07-29 00:09:03 UTC
EHAM 282355Z 20008KT 9999 FEW014 BKN045 16/15 Q1012 TEMPO 6000 DZRA BKN012

Schiphol Ground (West): 121.560

EHAM Info North Sea (North)
Amsterdam, Netherlands

Feed Status: DOWN
Offline since: 2016-07-29 00:08:03 UTC
EHAM 282355Z 20008KT 9999 FEW014 BKN045 16/15 Q1012 TEMPO 6000 DZRA BKN012

Amsterdam Info North Sea (North): 119.175

EHAM Info North Sea (Over Land)
Amsterdam, Netherlands

Feed Status: DOWN
Offline since: 2016-07-29 00:08:03 UTC
EHAM 282355Z 20008KT 9999 FEW014 BKN045 16/15 Q1012 TEMPO 6000 DZRA BKN012

Amsterdam Info North Sea (Over Land): 124.300

EHAM Info North Sea (South)
Amsterdam, Netherlands

Feed Status: DOWN
Offline since: 2016-07-29 00:10:03 UTC
EHAM 282355Z 20008KT 9999 FEW014 BKN045 16/15 Q1012 TEMPO 6000 DZRA BKN012

Amsterdam Info North Sea (South): 136.650

EHAM Schiphol Outbound Planner
Amsterdam, Netherlands

Feed Status: DOWN
Offline since: 2016-07-29 00:08:03 UTC
EHAM 282355Z 20008KT 9999 FEW014 BKN045 16/15 Q1012 TEMPO 6000 DZRA BKN012

Schiphol Outbound Planner: 121.655

EHAM Tow Traffic
Amsterdam, Netherlands

Feed Status: DOWN
Offline since: 2016-07-29 00:10:03 UTC
EHAM 282355Z 20008KT 9999 FEW014 BKN045 16/15 Q1012 TEMPO 6000 DZRA BKN012

Schiphol Tow Traffic: 134.875

EHAM Tower
Amsterdam, Netherlands

Feed Status: DOWN
Offline since: 2016-06-19 18:18:03 UTC
EHAM 282355Z 20008KT 9999 FEW014 BKN045 16/15 Q1012 TEMPO 6000 DZRA BKN012

Schiphol Tower: 118.950
Schiphol Tower (Main): 119.225
Schiphol Tower (secondary): 118.100
Schiphol Tower (West): 118.275

EHAM Tower (06/24)
Amsterdam, Netherlands

Feed Status: DOWN
Offline since: 2016-07-29 00:08:03 UTC
EHAM 282355Z 20008KT 9999 FEW014 BKN045 16/15 Q1012 TEMPO 6000 DZRA BKN012

Schiphol Tower Main 06/24: 118.950

EHAM Tower (18C/36C-27/09)
Amsterdam, Netherlands

Feed Status: DOWN
Offline since: 2016-07-29 00:08:03 UTC
EHAM 282355Z 20008KT 9999 FEW014 BKN045 16/15 Q1012 TEMPO 6000 DZRA BKN012

Schiphol Tower Main 18C/36C - 27/09: 118.100

EHAM Tower (18L/36R-22/04)
Amsterdam, Netherlands

Feed Status: DOWN
Offline since: 2016-07-29 00:09:03 UTC
EHAM 282355Z 20008KT 9999 FEW014 BKN045 16/15 Q1012 TEMPO 6000 DZRA BKN012

Schiphol Tower Main 18L/36R - 22/04: 119.225

EHAM Tower Backup
Amsterdam, Netherlands

Feed Status: DOWN
Offline since: 2016-07-29 00:08:03 UTC
EHAM 282355Z 20008KT 9999 FEW014 BKN045 16/15 Q1012 TEMPO 6000 DZRA BKN012

Schiphol Tower Backup: 119.900

EHAM Tower West (18R/36L)
Amsterdam, Netherlands

Feed Status: DOWN
Offline since: 2016-07-29 00:08:03 UTC
EHAM 282355Z 20008KT 9999 FEW014 BKN045 16/15 Q1012 TEMPO 6000 DZRA BKN012

Schiphol Tower West 18R/36L: 118.280

EHBK Gnd/Twr/App (Archives)
Beek, Netherlands

Feed Status: UP

Click on your favorite media player to listen:
Listen with WinAmp to EHBK Gnd/Twr/App  Listen with iTunes to EHBK Gnd/Twr/App  Click here to listen if using Real Player  Click here to listen if using Windows Media Player

Or simply listen in your browser:

Listen right in your browser(in browser, requires Flash)

EHBK 282355Z AUTO 24006KT 200V270 6000 -RADZ FEW008 SCT010 FEW015CB OVC021 16/15 Q1015

EHBK Flight Activity (Flightaware)

Listeners: 0 out of 926 total

Beek Approach: 120.200
Beek Approach: 123.975
Beek Ground: 121.825
Beek Tower: 119.475
Beek Tower: 119.700

MUAC/Eurocontrol Delta High (Archives)
Beek, Netherlands

Feed Status: UP

Click on your favorite media player to listen:
Listen with WinAmp to MUAC/Eurocontrol Delta High  Listen with iTunes to MUAC/Eurocontrol Delta High  Click here to listen if using Real Player  Click here to listen if using Windows Media Player

Or simply listen in your browser:

Listen right in your browser(in browser, requires Flash)

EHBK 282355Z AUTO 24006KT 200V270 6000 -RADZ FEW008 SCT010 FEW015CB OVC021 16/15 Q1015

EHBK Flight Activity (Flightaware)

Listeners: 0 out of 926 total

MUAC Delta High Sector: 132.085

MUAC/Eurocontrol Koksy (Archives)
Beek, Netherlands

Feed Status: UP

Click on your favorite media player to listen:
Listen with WinAmp to MUAC/Eurocontrol Koksy  Listen with iTunes to MUAC/Eurocontrol Koksy  Click here to listen if using Real Player  Click here to listen if using Windows Media Player

Or simply listen in your browser:

Listen right in your browser(in browser, requires Flash)

EHBK 282355Z AUTO 24006KT 200V270 6000 -RADZ FEW008 SCT010 FEW015CB OVC021 16/15 Q1015

EHBK Flight Activity (Flightaware)

Listeners: 0 out of 926 total

MUAC Koksy Sector: 132.205

MUAC/Eurocontrol Lux High (Archives)
Beek, Netherlands

Feed Status: UP

Click on your favorite media player to listen:
Listen with WinAmp to MUAC/Eurocontrol Lux High  Listen with iTunes to MUAC/Eurocontrol Lux High  Click here to listen if using Real Player  Click here to listen if using Windows Media Player

Or simply listen in your browser:

Listen right in your browser(in browser, requires Flash)

EHBK 282355Z AUTO 24006KT 200V270 6000 -RADZ FEW008 SCT010 FEW015CB OVC021 16/15 Q1015

EHBK Flight Activity (Flightaware)

Listeners: 0 out of 926 total

MUAC Lux High Sector: 132.315

MUAC/Eurocontrol Misc (Archives)
Beek, Netherlands

Feed Status: UP

Click on your favorite media player to listen:
Listen with WinAmp to MUAC/Eurocontrol Misc  Listen with iTunes to MUAC/Eurocontrol Misc  Click here to listen if using Real Player  Click here to listen if using Windows Media Player

Or simply listen in your browser:

Listen right in your browser(in browser, requires Flash)

EHBK 282355Z AUTO 24006KT 200V270 6000 -RADZ FEW008 SCT010 FEW015CB OVC021 16/15 Q1015

EHBK Flight Activity (Flightaware)

Listeners: 1 out of 926 total


MUAC/Eurocontrol Ruhr (Archives)
Beek, Netherlands

Feed Status: UP

Click on your favorite media player to listen:
Listen with WinAmp to MUAC/Eurocontrol Ruhr  Listen with iTunes to MUAC/Eurocontrol Ruhr  Click here to listen if using Real Player  Click here to listen if using Windows Media Player

Or simply listen in your browser:

Listen right in your browser(in browser, requires Flash)

EHBK 282355Z AUTO 24006KT 200V270 6000 -RADZ FEW008 SCT010 FEW015CB OVC021 16/15 Q1015

EHBK Flight Activity (Flightaware)

Listeners: 0 out of 926 total

MUAC Ruhr Sector: 132.615

MUAC/Eurocontrol Sollingen High (Archives)
Beek, Netherlands

Feed Status: UP

Click on your favorite media player to listen:
Listen with WinAmp to MUAC/Eurocontrol Sollingen High  Listen with iTunes to MUAC/Eurocontrol Sollingen High  Click here to listen if using Real Player  Click here to listen if using Windows Media Player

Or simply listen in your browser:

Listen right in your browser(in browser, requires Flash)

EHBK 282355Z AUTO 24006KT 200V270 6000 -RADZ FEW008 SCT010 FEW015CB OVC021 16/15 Q1015

EHBK Flight Activity (Flightaware)

Listeners: 0 out of 926 total

MUAC Sollingen High Sector: 131.380

EHEH Approach (Archives)
Eindhoven, Netherlands

Feed Status: UP

Click on your favorite media player to listen:
Listen with WinAmp to EHEH Approach  Listen with iTunes to EHEH Approach  Click here to listen if using Real Player  Click here to listen if using Windows Media Player

Or simply listen in your browser:

Listen right in your browser(in browser, requires Flash)

EHEH 282355Z AUTO 21007KT 9999 OVC015 16/14 Q1013 WHT

EHEH Flight Activity (Flightaware)

Listeners: 0 out of 926 total

Eindhoven Approach: 132.530
Eindhoven Arrival/Director: 124.530
Gilze Rijen RAPCON: 122.100
Gilze Rijen RAPCON South: 123.180

EHEH Gnd/Twr/App (Archives)
Eindhoven, Netherlands

Feed Status: UP

Click on your favorite media player to listen:
Listen with WinAmp to EHEH Gnd/Twr/App  Listen with iTunes to EHEH Gnd/Twr/App  Click here to listen if using Real Player  Click here to listen if using Windows Media Player

Or simply listen in your browser:

Listen right in your browser(in browser, requires Flash)

EHEH 282355Z AUTO 21007KT 9999 OVC015 16/14 Q1013 WHT

EHEH Flight Activity (Flightaware)

Listeners: 0 out of 926 total

Eindhoven Approach: 132.530
Eindhoven Arrival/Director: 124.530
Eindhoven Ground: 121.930
Eindhoven Tower: 131.005
Gilze Rijen RAPCON: 122.100
Gilze Rijen RAPCON South: 123.180

EHEH Ground (Archives)
Eindhoven, Netherlands

Feed Status: UP

Click on your favorite media player to listen:
Listen with WinAmp to EHEH Ground  Listen with iTunes to EHEH Ground  Click here to listen if using Real Player  Click here to listen if using Windows Media Player

Or simply listen in your browser:

Listen right in your browser(in browser, requires Flash)

EHEH 282355Z AUTO 21007KT 9999 OVC015 16/14 Q1013 WHT

EHEH Flight Activity (Flightaware)

Listeners: 0 out of 926 total

Eindhoven Ground: 121.930

EHEH Tower (Archives)
Eindhoven, Netherlands

Feed Status: UP

Click on your favorite media player to listen:
Listen with WinAmp to EHEH Tower  Listen with iTunes to EHEH Tower  Click here to listen if using Real Player  Click here to listen if using Windows Media Player

Or simply listen in your browser:

Listen right in your browser(in browser, requires Flash)

EHEH 282355Z AUTO 21007KT 9999 OVC015 16/14 Q1013 WHT

EHEH Flight Activity (Flightaware)

Listeners: 0 out of 926 total

Eindhoven Tower: 131.005

EHGG Approach (Archives)
Groningen, Netherlands

Feed Status: UP

Click on your favorite media player to listen:
Listen with WinAmp to EHGG Approach  Listen with iTunes to EHGG Approach  Click here to listen if using Real Player  Click here to listen if using Windows Media Player

Or simply listen in your browser:

Listen right in your browser(in browser, requires Flash)

EHGG 282355Z AUTO 24007KT 3700 BR FEW008 SCT010 BKN017 17/17 Q1011

EHGG Flight Activity (Flightaware)

Listeners: 0 out of 926 total

Eelde Approach: 120.300

EHGG ATIS (Archives)
Groningen, Netherlands

Feed Status: UP

Click on your favorite media player to listen:
Listen with WinAmp to EHGG ATIS  Listen with iTunes to EHGG ATIS  Click here to listen if using Real Player  Click here to listen if using Windows Media Player

Or simply listen in your browser:

Listen right in your browser(in browser, requires Flash)

EHGG 282355Z AUTO 24007KT 3700 BR FEW008 SCT010 BKN017 17/17 Q1011

EHGG Flight Activity (Flightaware)

Listeners: 0 out of 926 total

Groningen ATIS: 133.550

EHGG Ground (Archives)
Groningen, Netherlands

Feed Status: UP

Click on your favorite media player to listen:
Listen with WinAmp to EHGG Ground  Listen with iTunes to EHGG Ground  Click here to listen if using Real Player  Click here to listen if using Windows Media Player

Or simply listen in your browser:

Listen right in your browser(in browser, requires Flash)

EHGG 282355Z AUTO 24007KT 3700 BR FEW008 SCT010 BKN017 17/17 Q1011

EHGG Flight Activity (Flightaware)

Listeners: 0 out of 926 total

Eelde Clearance Delivery: 121.700

EHGG Guard/Emergency (Archives)
Groningen, Netherlands

Feed Status: UP

Click on your favorite media player to listen:
Listen with WinAmp to EHGG Guard/Emergency  Listen with iTunes to EHGG Guard/Emergency  Click here to listen if using Real Player  Click here to listen if using Windows Media Player

Or simply listen in your browser:

Listen right in your browser(in browser, requires Flash)

EHGG 282355Z AUTO 24007KT 3700 BR FEW008 SCT010 BKN017 17/17 Q1011

EHGG Flight Activity (Flightaware)

Listeners: 0 out of 926 total

Emergency/Guard: 121.500

EHGG Tower (Archives)
Groningen, Netherlands

Feed Status: UP

Click on your favorite media player to listen:
Listen with WinAmp to EHGG Tower  Listen with iTunes to EHGG Tower  Click here to listen if using Real Player  Click here to listen if using Windows Media Player

Or simply listen in your browser:

Listen right in your browser(in browser, requires Flash)

EHGG 282355Z AUTO 24007KT 3700 BR FEW008 SCT010 BKN017 17/17 Q1011

EHGG Flight Activity (Flightaware)

Listeners: 0 out of 926 total

Eelde Tower/Ground: 118.700

MUAC/Eurocontrol (EHGG Area) (Archives)
Groningen, Netherlands

Feed Status: UP

Click on your favorite media player to listen:
Listen with WinAmp to MUAC/Eurocontrol (EHGG Area)  Listen with iTunes to MUAC/Eurocontrol (EHGG Area)  Click here to listen if using Real Player  Click here to listen if using Windows Media Player

Or simply listen in your browser:

Listen right in your browser(in browser, requires Flash)

EHGG 282355Z AUTO 24007KT 3700 BR FEW008 SCT010 BKN017 17/17 Q1011

EHGG Flight Activity (Flightaware)

Listeners: 0 out of 926 total


EHLE Air to Air (Archives)
Lelystad, Netherlands

Feed Status: UP

Click on your favorite media player to listen:
Listen with WinAmp to EHLE Air to Air  Listen with iTunes to EHLE Air to Air  Click here to listen if using Real Player  Click here to listen if using Windows Media Player

Or simply listen in your browser:

Listen right in your browser(in browser, requires Flash)

EHLE Flight Activity (Flightaware)

Listeners: 0 out of 926 total

Lelystad Air to Air: 123.450

EHLE Fokker Four (Archives)
Lelystad, Netherlands

Feed Status: UP

Click on your favorite media player to listen:
Listen with WinAmp to EHLE Fokker Four  Listen with iTunes to EHLE Fokker Four  Click here to listen if using Real Player  Click here to listen if using Windows Media Player

Or simply listen in your browser:

Listen right in your browser(in browser, requires Flash)

EHLE Flight Activity (Flightaware)

Listeners: 0 out of 926 total

Lelystad Fokker Four: 123.525

EHLE Microlight Aircraft (Archives)
Lelystad, Netherlands

Feed Status: UP

Click on your favorite media player to listen:
Listen with WinAmp to EHLE Microlight Aircraft  Listen with iTunes to EHLE Microlight Aircraft  Click here to listen if using Real Player  Click here to listen if using Windows Media Player

Or simply listen in your browser:

Listen right in your browser(in browser, requires Flash)

EHLE Flight Activity (Flightaware)

Listeners: 0 out of 926 total

Lelystad Microlight Aircraft: 123.825

EHLE Radio (Archives)
Lelystad, Netherlands

Feed Status: UP

Click on your favorite media player to listen:
Listen with WinAmp to EHLE Radio  Listen with iTunes to EHLE Radio  Click here to listen if using Real Player  Click here to listen if using Windows Media Player

Or simply listen in your browser:

Listen right in your browser(in browser, requires Flash)

EHLE Flight Activity (Flightaware)

Listeners: 0 out of 926 total

Lelystad Radio: 123.675

EHMC/EHML Military/Radar (Archives)
Nieuw-Milligen, Netherlands

Feed Status: UP

Click on your favorite media player to listen:
Listen with WinAmp to EHMC/EHML Military/Radar  Listen with iTunes to EHMC/EHML Military/Radar  Click here to listen if using Real Player  Click here to listen if using Windows Media Player

Or simply listen in your browser:

Listen right in your browser(in browser, requires Flash)

EHMC Flight Activity (Flightaware)

Listeners: 0 out of 926 total

AMCC: 234.000
Belga Radar: 129.325
Command Post: 313.550
Dutch Military Radar: 120.825
Dutch Military Radar: 125.925
Dutch Military Radar: 128.350
GCI: 363.100
Lippe Radar: 131.075
London Mil: 135.275
Meteo: 284.425

Military Mode-S Logs
REACH Flights Europe Mode-S Logs
NOTE: Due to receiver distance only aircraft can be heard

EHMC/EHML Military/Radar (Archives)
Nieuw-Milligen, Netherlands

Feed Status: UP

Click on your favorite media player to listen:
Listen with WinAmp to EHMC/EHML Military/Radar  Listen with iTunes to EHMC/EHML Military/Radar  Click here to listen if using Real Player  Click here to listen if using Windows Media Player

Or simply listen in your browser:

Listen right in your browser(in browser, requires Flash)

EHMC Flight Activity (Flightaware)

Listeners: 0 out of 926 total

AMCC: 234.000
Belga Radar: 129.325
Command Post: 313.550
Dutch Military Radar: 120.825
Dutch Military Radar: 125.925
Dutch Military Radar: 128.350
GCI: 363.100
Lippe Radar: 131.075
London Mil: 135.275
Meteo: 284.425

Military Mode-S Logs
REACH Flights Europe Mode-S Logs
NOTE: Due to receiver distance only aircraft can be heard

EHRD Approach (Archives)
Rotterdam, Netherlands

Feed Status: UP

Click on your favorite media player to listen:
Listen with WinAmp to EHRD Approach  Listen with iTunes to EHRD Approach  Click here to listen if using Real Player  Click here to listen if using Windows Media Player

Or simply listen in your browser:

Listen right in your browser(in browser, requires Flash)

EHRD 282355Z AUTO 17007KT 140V200 7000 DZ SCT004 BKN006 BKN007 16/16 Q1012 BECMG 9999 NSW

EHRD Flight Activity (Flightaware)

Listeners: 0 out of 926 total

Rotterdam Approach: 127.025

EHRD Clearance Delivery (Archives)
Rotterdam, Netherlands

Feed Status: UP

Click on your favorite media player to listen:
Listen with WinAmp to EHRD Clearance Delivery  Listen with iTunes to EHRD Clearance Delivery  Click here to listen if using Real Player  Click here to listen if using Windows Media Player

Or simply listen in your browser:

Listen right in your browser(in browser, requires Flash)

EHRD 282355Z AUTO 17007KT 140V200 7000 DZ SCT004 BKN006 BKN007 16/16 Q1012 BECMG 9999 NSW

EHRD Flight Activity (Flightaware)

Listeners: 0 out of 926 total

Rotterdam Del/Gnd: 122.175

EHRD Del/Twr (Archives)
Rotterdam, Netherlands

Feed Status: UP

Click on your favorite media player to listen:
Listen with WinAmp to EHRD Del/Twr  Listen with iTunes to EHRD Del/Twr  Click here to listen if using Real Player  Click here to listen if using Windows Media Player

Or simply listen in your browser:

Listen right in your browser(in browser, requires Flash)

EHRD 282355Z AUTO 17007KT 140V200 7000 DZ SCT004 BKN006 BKN007 16/16 Q1012 BECMG 9999 NSW

EHRD Flight Activity (Flightaware)

Listeners: 0 out of 926 total

Rotterdam Del/Gnd: 122.175
Rotterdam Tower: 118.200

EHRD Gnd/Twr/App (Archives)
Rotterdam, Netherlands

Feed Status: UP

Click on your favorite media player to listen:
Listen with WinAmp to EHRD Gnd/Twr/App  Listen with iTunes to EHRD Gnd/Twr/App  Click here to listen if using Real Player  Click here to listen if using Windows Media Player

Or simply listen in your browser:

Listen right in your browser(in browser, requires Flash)

EHRD 282355Z AUTO 17007KT 140V200 7000 DZ SCT004 BKN006 BKN007 16/16 Q1012 BECMG 9999 NSW

EHRD Flight Activity (Flightaware)

Listeners: 0 out of 926 total

Rotterdam Approach: 127.025
Rotterdam Del/Gnd: 122.175
Rotterdam Tower: 118.200

EHRD Tower (Archives)
Rotterdam, Netherlands

Feed Status: UP

Click on your favorite media player to listen:
Listen with WinAmp to EHRD Tower  Listen with iTunes to EHRD Tower  Click here to listen if using Real Player  Click here to listen if using Windows Media Player

Or simply listen in your browser:

Listen right in your browser(in browser, requires Flash)

EHRD 282355Z AUTO 17007KT 140V200 7000 DZ SCT004 BKN006 BKN007 16/16 Q1012 BECMG 9999 NSW

EHRD Flight Activity (Flightaware)

Listeners: 1 out of 926 total

Rotterdam Tower: 118.200

EHRD Twr/App (Archives)
Rotterdam, Netherlands

Feed Status: UP

Click on your favorite media player to listen:
Listen with WinAmp to EHRD Twr/App   Listen with iTunes to EHRD Twr/App   Click here to listen if using Real Player  Click here to listen if using Windows Media Player

Or simply listen in your browser:

Listen right in your browser(in browser, requires Flash)

EHRD 282355Z AUTO 17007KT 140V200 7000 DZ SCT004 BKN006 BKN007 16/16 Q1012 BECMG 9999 NSW

EHRD Flight Activity (Flightaware)

Listeners: 0 out of 926 total

Rotterdam Approach: 127.025
Rotterdam Tower: 118.200

EHRD ADS-B Logs

EHTX Gnd/Twr (Archives)
Texel, Netherlands

Feed Status: UP

Click on your favorite media player to listen:
Listen with WinAmp to EHTX Gnd/Twr  Listen with iTunes to EHTX Gnd/Twr  Click here to listen if using Real Player  Click here to listen if using Windows Media Player

Or simply listen in your browser:

Listen right in your browser(in browser, requires Flash)

EHTX Flight Activity (Flightaware)

Listeners: 0 out of 926 total

Texel Radio (Ground/Tower): 119.300

EHVL CTAF/Range Control (Archives)
Vlieland, Netherlands

Feed Status: UP

Click on your favorite media player to listen:
Listen with WinAmp to EHVL CTAF/Range Control  Listen with iTunes to EHVL CTAF/Range Control  Click here to listen if using Real Player  Click here to listen if using Windows Media Player

Or simply listen in your browser:

Listen right in your browser(in browser, requires Flash)

EHVL 282355Z AUTO 21006KT 9999 SCT032 BKN037 OVC041 17/15 Q1011 BLU

EHVL Flight Activity (Flightaware)

Listeners: 0 out of 926 total

Cornfield VHF (CTAF): 122.100
Range Controller (Primary): 279.000
Range Controller (Secondary): 369.200
Range Controller VHF: 138.075

EICK Ground/Tower/Approach (Archives)
Cork, Ireland

Feed Status: UP

Click on your favorite media player to listen:
Listen with WinAmp to EICK Ground/Tower/Approach  Listen with iTunes to EICK Ground/Tower/Approach  Click here to listen if using Real Player  Click here to listen if using Windows Media Player

Or simply listen in your browser:

Listen right in your browser(in browser, requires Flash)

EICK 282330Z 22006KT 9999 SCT006 BKN011 BKN022 14/13 Q1012 NOSIG

EICK Flight Activity (Flightaware)

Listeners: 0 out of 926 total

Cork Approach: 119.900
Cork Ground: 121.850
Cork Tower: 119.300

EIDW Del/Gnd/Twr/App/Center (Archives)
Dublin, Ireland

Feed Status: UP

Click on your favorite media player to listen:
Listen with WinAmp to EIDW Del/Gnd/Twr/App/Center  Listen with iTunes to EIDW Del/Gnd/Twr/App/Center  Click here to listen if using Real Player  Click here to listen if using Windows Media Player

Or simply listen in your browser:

Listen right in your browser(in browser, requires Flash)

EIDW 282330Z 25012KT 9999 -DZ FEW005 SCT010 BKN045 15/14 Q1009 NOSIG

EIDW Flight Activity (Flightaware)

Listeners: 12 out of 926 total

Dublin Approach: 121.100
Dublin Approach (backup): 119.550
Dublin Centre North: 129.175
Dublin Centre South: 126.250
Dublin Clearance Delivery: 121.875
Dublin FIS: 118.500
Dublin Ground: 121.800
Dublin Tower: 118.600

EIKN Gnd/Twr/App (Archives)
Charlestown, Ireland

Feed Status: UP

Click on your favorite media player to listen:
Listen with WinAmp to EIKN Gnd/Twr/App  Listen with iTunes to EIKN Gnd/Twr/App  Click here to listen if using Real Player  Click here to listen if using Windows Media Player

Or simply listen in your browser:

Listen right in your browser(in browser, requires Flash)

EIKN 282000Z 27008KT 5000 -RADZ BKN004 BKN011 14/14 Q1009 NOSIG

EIKN Flight Activity (Flightaware)

Listeners: 0 out of 926 total

Connaught Ground: 121.900
Connaught Tower: 130.700
Shannon Low Level: 119.075

Special Note: Sponsored by CAC

EINN Shannon Control (High)
Shannon, Ireland

Feed Status: DOWN
Offline since: 2016-06-20 12:09:02 UTC
EINN 282330Z 25010KT 9999 FEW004 BKN010 15/14 Q1011 TEMPO BKN004

Emergency/Guard: 121.500
Shannon Clearance (Oceanic only): 121.700
Shannon Control: 122.975
Shannon Control: 125.875
Shannon Control: 135.725
Shannon Control: 135.625
Shannon Control: 127.250
Shannon Control: 130.975
Shannon Control: 136.250
Shannon Control: 124.175
Shannon Control: 127.125
Shannon Control: 134.625
Shannon Control (BABAN/DEVOL Sector): 132.150
Shannon Control (Cork Sector): 131.150
Shannon Control (Shannon Sector): 134.275
Shannon Control (Shannon/Sota Sector): 124.700
Shannon Control (SOTA Sector): 135.600
Shannon FIR (below FL075): 127.500
Shannon High Level (SOTA Sector): 135.225
Shanwick Radio: 135.525
Shanwick Radio: 127.650
Shanwick Radio (VHF): 127.900
Shanwick Radio Clearance: 123.950
Track Information: 133.800

EINN Twr/App #1 (Archives)
Shannon, Ireland

Feed Status: UP

Click on your favorite media player to listen:
Listen with WinAmp to EINN Twr/App #1  Listen with iTunes to EINN Twr/App #1  Click here to listen if using Real Player  Click here to listen if using Windows Media Player

Or simply listen in your browser:

Listen right in your browser(in browser, requires Flash)

EINN 282330Z 25010KT 9999 FEW004 BKN010 15/14 Q1011 TEMPO BKN004

EINN Flight Activity (Flightaware)

Listeners: 1 out of 926 total

Aer Lingus Ops: 131.500
Service Air Ops: 131.450
Shannon Approach Radar: 121.400
Shannon Control: Misc
Shannon Ground: 121.800
Shannon Tower: 118.700
Sig Ops (Pre-Clearance): 131.590

EINN Twr/App #2
Shannon, Ireland

Feed Status: DOWN
Offline since: 2016-06-20 12:09:02 UTC
EINN 282330Z 25010KT 9999 FEW004 BKN010 15/14 Q1011 TEMPO BKN004

Shannon Approach Radar: 121.400
Shannon Ground: 121.800
Shannon Tower: 118.700

EKBI/EKVD Approach
Billund, Denmark

Feed Status: DOWN
Offline since: 2016-05-10 18:24:04 UTC
EKBI 282350Z AUTO 06002KT 9999NDV BKN076/// 13/11 Q1012

Billund Approach: 127.575
Skrydstrup Approach: 127.475
Vamdrup AFIS: 120.500

EKCH Approach (Archives)
Copenhagen, Denmark

Feed Status: UP

Click on your favorite media player to listen:
Listen with WinAmp to EKCH Approach  Listen with iTunes to EKCH Approach  Click here to listen if using Real Player  Click here to listen if using Windows Media Player

Or simply listen in your browser:

Listen right in your browser(in browser, requires Flash)

EKCH 282350Z 07003KT CAVOK 17/13 Q1012 RK/ NOSIG

EKCH Flight Activity (Flightaware)

Listeners: 0 out of 926 total

Copenhagen Approach: 119.800

EKCH Arrival (Archives)
Copenhagen, Denmark

Feed Status: UP

Click on your favorite media player to listen:
Listen with WinAmp to EKCH Arrival  Listen with iTunes to EKCH Arrival  Click here to listen if using Real Player  Click here to listen if using Windows Media Player

Or simply listen in your browser:

Listen right in your browser(in browser, requires Flash)

EKCH 282350Z 07003KT CAVOK 17/13 Q1012 RK/ NOSIG

EKCH Flight Activity (Flightaware)

Listeners: 0 out of 926 total

Copenhagen Arrival: 118.450

EKCH Departure (Archives)
Copenhagen, Denmark

Feed Status: UP

Click on your favorite media player to listen:
Listen with WinAmp to EKCH Departure  Listen with iTunes to EKCH Departure  Click here to listen if using Real Player  Click here to listen if using Windows Media Player

Or simply listen in your browser:

Listen right in your browser(in browser, requires Flash)

EKCH 282350Z 07003KT CAVOK 17/13 Q1012 RK/ NOSIG

EKCH Flight Activity (Flightaware)

Listeners: 0 out of 926 total

Copenhagen Departure: 120.200

EKCH Final (Archives)
Copenhagen, Denmark

Feed Status: UP

Click on your favorite media player to listen:
Listen with WinAmp to EKCH Final  Listen with iTunes to EKCH Final  Click here to listen if using Real Player  Click here to listen if using Windows Media Player

Or simply listen in your browser:

Listen right in your browser(in browser, requires Flash)

EKCH 282350Z 07003KT CAVOK 17/13 Q1012 RK/ NOSIG

EKCH Flight Activity (Flightaware)

Listeners: 0 out of 926 total

Copenhagen Final: 120.200

EKCH Tower (Archives)
Copenhagen, Denmark

Feed Status: UP

Click on your favorite media player to listen:
Listen with WinAmp to EKCH Tower  Listen with iTunes to EKCH Tower  Click here to listen if using Real Player  Click here to listen if using Windows Media Player

Or simply listen in your browser:

Listen right in your browser(in browser, requires Flash)

EKCH 282350Z 07003KT CAVOK 17/13 Q1012 RK/ NOSIG

EKCH Flight Activity (Flightaware)

Listeners: 0 out of 926 total

Copenhagen Tower: 118.700

EKCH Tower (Departure) (Archives)
Copenhagen, Denmark

Feed Status: UP

Click on your favorite media player to listen:
Listen with WinAmp to EKCH Tower (Departure)  Listen with iTunes to EKCH Tower (Departure)  Click here to listen if using Real Player  Click here to listen if using Windows Media Player

Or simply listen in your browser:

Listen right in your browser(in browser, requires Flash)

EKCH 282350Z 07003KT CAVOK 17/13 Q1012 RK/ NOSIG

EKCH Flight Activity (Flightaware)

Listeners: 0 out of 926 total

Copenhagen Tower (Departure): 119.350

EKSB AFIS/CPH FIR
Sonderborg, Denmark

Feed Status: DOWN
Offline since: 2015-11-28 18:11:04 UTC

CPH FIR AREA C FL285 -FL345: 128.215
CPH FIR AREA D FL35-FL285: 133.150
CPH FIR AREA UC FL345-FL660: 126.765
EKSB AFIS: 126.400
Emergency/Guard: 121.500

EKBI/EKVD Approach
Vamdrup, Denmark

Feed Status: DOWN
Offline since: 2016-05-10 18:24:04 UTC
EKBI 282350Z AUTO 06002KT 9999NDV BKN076/// 13/11 Q1012

Billund Approach: 127.575
Skrydstrup Approach: 127.475
Vamdrup AFIS: 120.500

EKYT Approach/Info (Archives)
Aalborg, Denmark

Feed Status: UP

Click on your favorite media player to listen:
Listen with WinAmp to EKYT Approach/Info  Listen with iTunes to EKYT Approach/Info  Click here to listen if using Real Player  Click here to listen if using Windows Media Player

Or simply listen in your browser:

Listen right in your browser(in browser, requires Flash)

EKYT 282350Z 00000KT 9999 FEW040 SCT060 14/13 Q1012

EKYT Flight Activity (Flightaware)

Listeners: 0 out of 926 total

Aalborg Approach: 123.975
Copenhagen Information: 129.475

ENAL Moere Approach (Archives)
Alesund, Norway

Feed Status: UP

Click on your favorite media player to listen:
Listen with WinAmp to ENAL Moere Approach  Listen with iTunes to ENAL Moere Approach  Click here to listen if using Real Player  Click here to listen if using Windows Media Player

Or simply listen in your browser:

Listen right in your browser(in browser, requires Flash)

ENAL 282350Z AUTO 24002KT 9999 OVC062/// 13/11 Q1007

ENAL Flight Activity (Flightaware)

Listeners: 0 out of 926 total

Moere Approach: 129.325

Note: Moere Approach covers airports ENAL, ENML, ENKB, ENOV

ENAL Tower (Archives)
Alesund, Norway

Feed Status: UP

Click on your favorite media player to listen:
Listen with WinAmp to ENAL Tower  Listen with iTunes to ENAL Tower  Click here to listen if using Real Player  Click here to listen if using Windows Media Player

Or simply listen in your browser:

Listen right in your browser(in browser, requires Flash)

ENAL 282350Z AUTO 24002KT 9999 OVC062/// 13/11 Q1007

ENAL Flight Activity (Flightaware)

Listeners: 0 out of 926 total

Alesund Tower: 118.100

ENBO Approach (Archives)
Bodo, Norway

Feed Status: UP

Click on your favorite media player to listen:
Listen with WinAmp to ENBO Approach  Listen with iTunes to ENBO Approach  Click here to listen if using Real Player  Click here to listen if using Windows Media Player

Or simply listen in your browser:

Listen right in your browser(in browser, requires Flash)

ENBO 282350Z 19002KT 9999 4000E FEW002 SCT006 BKN020 14/14 Q1007

ENBO Flight Activity (Flightaware)

Listeners: 0 out of 926 total

Bodo Approach: 119.700

ENBO Tower (Archives)
Bodo, Norway

Feed Status: UP

Click on your favorite media player to listen:
Listen with WinAmp to ENBO Tower  Listen with iTunes to ENBO Tower  Click here to listen if using Real Player  Click here to listen if using Windows Media Player

Or simply listen in your browser:

Listen right in your browser(in browser, requires Flash)

ENBO 282350Z 19002KT 9999 4000E FEW002 SCT006 BKN020 14/14 Q1007

ENBO Flight Activity (Flightaware)

Listeners: 0 out of 926 total

Bodo Tower: 118.100

ENCN Tower/Approach (Archives)
Kristiansand, Norway

Feed Status: UP

Click on your favorite media player to listen:
Listen with WinAmp to ENCN Tower/Approach  Listen with iTunes to ENCN Tower/Approach  Click here to listen if using Real Player  Click here to listen if using Windows Media Player

Or simply listen in your browser:

Listen right in your browser(in browser, requires Flash)

ENCN 282250Z AUTO VRB02KT 9999 BKN140/// 13/12 Q1011

ENCN Flight Activity (Flightaware)

Listeners: 0 out of 926 total

Kjevik Tower: 118.100
Kjevik Tower/Approach: 119.950

ENEV Twr/App/AFIS (Archives)
Evenes, Norway

Feed Status: UP

Click on your favorite media player to listen:
Listen with WinAmp to ENEV Twr/App/AFIS  Listen with iTunes to ENEV Twr/App/AFIS  Click here to listen if using Real Player  Click here to listen if using Windows Media Player

Or simply listen in your browser:

Listen right in your browser(in browser, requires Flash)

ENEV 282350Z AUTO 20006KT 9999NDV -RA SCT057/// BKN076/// 15/13 Q1006 RMK WIND 1400FT 23014KT

ENEV Flight Activity (Flightaware)

Listeners: 0 out of 926 total

Evenes Approach: 120.100
Evenes Tower: 118.000
Narvik Airport (Framnes) AFIS: 121.200

ENGM Approach (Archives)
Oslo, Norway

Feed Status: UP

Click on your favorite media player to listen:
Listen with WinAmp to ENGM Approach  Listen with iTunes to ENGM Approach  Click here to listen if using Real Player  Click here to listen if using Windows Media Player

Or simply listen in your browser:

Listen right in your browser(in browser, requires Flash)

ENGM 282350Z 17006KT 9999 FEW010 SCT090 14/13 Q1009

ENGM Flight Activity (Flightaware)

Listeners: 0 out of 926 total

Oslo Approach: 118.475
Oslo Approach: 120.450

Feed courtesy of www.flyradio.be

ENKB Twr/App (Archives)
Kristiansund, Norway

Feed Status: UP

Click on your favorite media player to listen:
Listen with WinAmp to ENKB Twr/App  Listen with iTunes to ENKB Twr/App  Click here to listen if using Real Player  Click here to listen if using Windows Media Player

Or simply listen in your browser:

Listen right in your browser(in browser, requires Flash)

ENKB 282350Z AUTO 06007KT 9999 DZ FEW016/// SCT029/// BKN046/// 14/12 Q1008 RERA

ENKB Flight Activity (Flightaware)

Listeners: 0 out of 926 total

Kvernberget Approach: 121.200
Kvernberget Tower: 118.300

ENKJ RDO (Archives)
Kjeller, Norway

Feed Status: UP

Click on your favorite media player to listen:
Listen with WinAmp to ENKJ RDO  Listen with iTunes to ENKJ RDO  Click here to listen if using Real Player  Click here to listen if using Windows Media Player

Or simply listen in your browser:

Listen right in your browser(in browser, requires Flash)

ENKJ Flight Activity (Flightaware)

Listeners: 0 out of 926 total

Kjeller RDO: 119.100

ENLI CTAF (Archives)
Farsund, Norway

Feed Status: UP

Click on your favorite media player to listen:
Listen with WinAmp to ENLI CTAF  Listen with iTunes to ENLI CTAF  Click here to listen if using Real Player  Click here to listen if using Windows Media Player

Or simply listen in your browser:

Listen right in your browser(in browser, requires Flash)

ENLI Flight Activity (Flightaware)

Listeners: 0 out of 926 total

Lista Traffic/Lista Radio: 126.450

ENRK CTAF (Archives)
Astorp, Norway

Feed Status: UP

Click on your favorite media player to listen:
Listen with WinAmp to ENRK CTAF  Listen with iTunes to ENRK CTAF  Click here to listen if using Real Player  Click here to listen if using Windows Media Player

Or simply listen in your browser:

Listen right in your browser(in browser, requires Flash)

ENRK Flight Activity (Flightaware)

Listeners: 0 out of 926 total

Rakkestad CTAF: 122.950

ENSO AFIS (Archives)
Stord, Norway

Feed Status: UP

Click on your favorite media player to listen:
Listen with WinAmp to ENSO AFIS  Listen with iTunes to ENSO AFIS  Click here to listen if using Real Player  Click here to listen if using Windows Media Player

Or simply listen in your browser:

Listen right in your browser(in browser, requires Flash)

ENSO 281850Z 18005KT 150V210 9999 SCT024TCU SCT035 BKN070 15/12 Q1010

ENSO Flight Activity (Flightaware)

Listeners: 0 out of 926 total

Stord AFIS: 120.200

Feed sponsored by:

ENTC Tower/App (Archives)
Langnes, Norway

Feed Status: UP

Click on your favorite media player to listen:
Listen with WinAmp to ENTC Tower/App  Listen with iTunes to ENTC Tower/App  Click here to listen if using Real Player  Click here to listen if using Windows Media Player

Or simply listen in your browser:

Listen right in your browser(in browser, requires Flash)

ENTC 282350Z 04003KT 9999 VCSH NSC 14/12 Q1006 RMK WIND 2600FT 17020KT

ENTC Flight Activity (Flightaware)

Listeners: 0 out of 926 total

Langnes Tower: 118.300
Langnes VDF (Approach): 123.750

ENVA Gnd/Twr/App
Trondheim, Norway

Feed Status: DOWN
Offline since: 2016-07-08 18:34:03 UTC
ENVA 282350Z 12004KT CAVOK 12/11 Q1008 RMK WIND 670FT VRB02KT

Approach: 118.250
Trondheim Ground: 121.600
Trondheim Ground: 121.900
Trondheim Tower: 119.400
Trondheim Tower: 118.600

EPGD Tower/Approach (Archives)
Gdansk, Poland

Feed Status: UP

Click on your favorite media player to listen:
Listen with WinAmp to EPGD Tower/Approach  Listen with iTunes to EPGD Tower/Approach  Click here to listen if using Real Player  Click here to listen if using Windows Media Player

Or simply listen in your browser:

Listen right in your browser(in browser, requires Flash)

EPGD 282330Z VRB01KT 9999 BKN015 17/16 Q1014

EPGD Flight Activity (Flightaware)

Listeners: 0 out of 926 total

Gdansk Approach: 127.275
Gdansk Tower: 118.100

EPKK Gnd/Tower/App (Archives)
Krakow, Poland

Feed Status: UP

Click on your favorite media player to listen:
Listen with WinAmp to EPKK Gnd/Tower/App  Listen with iTunes to EPKK Gnd/Tower/App  Click here to listen if using Real Player  Click here to listen if using Windows Media Player

Or simply listen in your browser:

Listen right in your browser(in browser, requires Flash)

EPKK 282330Z VRB01KT 2900 -RA BR SCT020 19/18 Q1014

EPKK Flight Activity (Flightaware)

Listeners: 0 out of 926 total

Krakow Approach: 121.075
Krakow Ground: 118.100
Krakow Tower: 123.250

EPKR CTAF (Archives)
Krosno, Poland

Feed Status: UP

Click on your favorite media player to listen:
Listen with WinAmp to EPKR CTAF  Listen with iTunes to EPKR CTAF  Click here to listen if using Real Player  Click here to listen if using Windows Media Player

Or simply listen in your browser:

Listen right in your browser(in browser, requires Flash)

EPKR Flight Activity (Flightaware)

Listeners: 0 out of 926 total

Krosno CTAF: 122.400

EPKT Del/Twr/App
Katowice, Poland

Feed Status: DOWN
Offline since: 2016-07-23 06:54:03 UTC
EPKT 282330Z 10003KT 1200 0400W R27/2000N BCFG BR NSC 17/17 Q1015

Katowice Delivery: 121.800
Katowice Tower: 129.250
Krakow Approach: 135.400
Krakow Approach: 121.075

EPKT Delivery/Approach
Katowice, Poland

Feed Status: DOWN
Offline since: 2016-07-23 05:14:02 UTC
EPKT 282330Z 10003KT 1200 0400W R27/2000N BCFG BR NSC 17/17 Q1015

Katowice Delivery: 121.800
Krakow Approach: 121.075

EPKT Tower/Approach
Katowice, Poland

Feed Status: DOWN
Offline since: 2016-07-23 05:14:02 UTC
EPKT 282330Z 10003KT 1200 0400W R27/2000N BCFG BR NSC 17/17 Q1015

Katowice Tower: 129.250
Krakow Approach: 135.400

EPLB CTAF/Center (Archives)
Lublin, Poland

Feed Status: UP

Click on your favorite media player to listen:
Listen with WinAmp to EPLB CTAF/Center  Listen with iTunes to EPLB CTAF/Center  Click here to listen if using Real Player  Click here to listen if using Windows Media Player

Or simply listen in your browser:

Listen right in your browser(in browser, requires Flash)

EPLB 282330Z 27004KT 5000 BR SCT011 20/20 Q1013

EPLB Flight Activity (Flightaware)

Listeners: 0 out of 926 total

Center: 136.425
Lublin CTAF: 118.500

EPLL Tower (Archives)
Lodz, Poland

Feed Status: UP

Click on your favorite media player to listen:
Listen with WinAmp to EPLL Tower  Listen with iTunes to EPLL Tower  Click here to listen if using Real Player  Click here to listen if using Windows Media Player

Or simply listen in your browser:

Listen right in your browser(in browser, requires Flash)

EPLL 282330Z VRB01KT 5000 BR NSC 17/16 Q1014

EPLL Flight Activity (Flightaware)

Listeners: 0 out of 926 total

Lodz Tower: 124.225

EPMO Tower (Archives)
Warsaw, Poland

Feed Status: UP

Click on your favorite media player to listen:
Listen with WinAmp to EPMO Tower  Listen with iTunes to EPMO Tower  Click here to listen if using Real Player  Click here to listen if using Windows Media Player

Or simply listen in your browser:

Listen right in your browser(in browser, requires Flash)

EPMO 282330Z 32005KT CAVOK 19/15 Q1013

EPMO Flight Activity (Flightaware)

Listeners: 0 out of 926 total

Modlin Tower: 123.925

www.salt.aero

EPPO Twr/App/FIS (Archives)
Poznan, Poland

Feed Status: UP

Click on your favorite media player to listen:
Listen with WinAmp to EPPO Twr/App/FIS  Listen with iTunes to EPPO Twr/App/FIS  Click here to listen if using Real Player  Click here to listen if using Windows Media Player

Or simply listen in your browser:

Listen right in your browser(in browser, requires Flash)

EPPO 282330Z 31003KT CAVOK 17/16 Q1014

EPPO Flight Activity (Flightaware)

Listeners: 0 out of 926 total

Poznan Approach: 129.025
Poznan Approach: 127.225
Poznan FIS: 126.300
Poznan Tower: 119.975

Sponsored by: GearUp!

EPRZ Del/Twr/EPWW Radar (Archives)
Jasionka, Poland

Feed Status: UP

Click on your favorite media player to listen:
Listen with WinAmp to EPRZ Del/Twr/EPWW Radar  Listen with iTunes to EPRZ Del/Twr/EPWW Radar  Click here to listen if using Real Player  Click here to listen if using Windows Media Player

Or simply listen in your browser:

Listen right in your browser(in browser, requires Flash)

EPRZ 282330Z 25004KT CAVOK 18/18 Q1014

EPRZ Flight Activity (Flightaware)

Listeners: 1 out of 926 total

EPWW Radar: 134.175
EPWW Radar: 120.950
Rzeszow Delivery: 121.800
Rzeszow Tower: 126.800

EPWA Approach (Archives)
Warsaw, Poland

Feed Status: UP

Click on your favorite media player to listen:
Listen with WinAmp to EPWA Approach  Listen with iTunes to EPWA Approach  Click here to listen if using Real Player  Click here to listen if using Windows Media Player

Or simply listen in your browser:

Listen right in your browser(in browser, requires Flash)

EPWA 282330Z 31004KT CAVOK 20/16 Q1013 NOSIG

EPWA Flight Activity (Flightaware)

Listeners: 2 out of 926 total

Warsaw Approach: 128.800

EPWA Director (Archives)
Warsaw, Poland

Feed Status: UP

Click on your favorite media player to listen:
Listen with WinAmp to EPWA Director  Listen with iTunes to EPWA Director  Click here to listen if using Real Player  Click here to listen if using Windows Media Player

Or simply listen in your browser:

Listen right in your browser(in browser, requires Flash)

EPWA 282330Z 31004KT CAVOK 20/16 Q1013 NOSIG

EPWA Flight Activity (Flightaware)

Listeners: 0 out of 926 total

Warsaw Director: 129.375

EPWA Tower (Archives)
Warsaw, Poland

Feed Status: UP

Click on your favorite media player to listen:
Listen with WinAmp to EPWA Tower  Listen with iTunes to EPWA Tower  Click here to listen if using Real Player  Click here to listen if using Windows Media Player

Or simply listen in your browser:

Listen right in your browser(in browser, requires Flash)

EPWA 282330Z 31004KT CAVOK 20/16 Q1013 NOSIG

EPWA Flight Activity (Flightaware)

Listeners: 2 out of 926 total

Warsaw Tower: 118.300

Audio provided by: datahouse.pl

EPWR Approach (Archives)
Wroclaw, Poland

Feed Status: UP

Click on your favorite media player to listen:
Listen with WinAmp to EPWR Approach  Listen with iTunes to EPWR Approach  Click here to listen if using Real Player  Click here to listen if using Windows Media Player

Or simply listen in your browser:

Listen right in your browser(in browser, requires Flash)

EPPO 282330Z 31003KT CAVOK 17/16 Q1014

EPPO Flight Activity (Flightaware)

Listeners: 1 out of 926 total

Poznan Approach (South): 127.225

EPWR Tower (Archives)
Wroclaw, Poland

Feed Status: UP

Click on your favorite media player to listen:
Listen with WinAmp to EPWR Tower  Listen with iTunes to EPWR Tower  Click here to listen if using Real Player  Click here to listen if using Windows Media Player

Or simply listen in your browser:

Listen right in your browser(in browser, requires Flash)

EPWR 282330Z VRB01KT 9999 MIFG NSC 17/16 Q1014

EPWR Flight Activity (Flightaware)

Listeners: 1 out of 926 total

Wroclaw Tower: 120.250

EPRZ Del/Twr/EPWW Radar (Archives)
Jasionka, Poland

Feed Status: UP

Click on your favorite media player to listen:
Listen with WinAmp to EPRZ Del/Twr/EPWW Radar  Listen with iTunes to EPRZ Del/Twr/EPWW Radar  Click here to listen if using Real Player  Click here to listen if using Windows Media Player

Or simply listen in your browser:

Listen right in your browser(in browser, requires Flash)

EPRZ 282330Z 25004KT CAVOK 18/18 Q1014

EPRZ Flight Activity (Flightaware)

Listeners: 1 out of 926 total

EPWW Radar: 134.175
EPWW Radar: 120.950
Rzeszow Delivery: 121.800
Rzeszow Tower: 126.800

EPZG Radar (Archives)
Zielona Gora, Poland

Feed Status: UP

Click on your favorite media player to listen:
Listen with WinAmp to EPZG Radar  Listen with iTunes to EPZG Radar  Click here to listen if using Real Player  Click here to listen if using Windows Media Player

Or simply listen in your browser:

Listen right in your browser(in browser, requires Flash)

EPZG 282000Z 00000KT CAVOK 19/17 Q1015

EPZG Flight Activity (Flightaware)

Listeners: 0 out of 926 total

Warszawa Radar Sector D: 134.225
Warszawa Radar Sector T: 134.875

ESDF Twr/Control/Misc (Archives)
Ronneby, Sweden

Feed Status: UP

Click on your favorite media player to listen:
Listen with WinAmp to ESDF Twr/Control/Misc  Listen with iTunes to ESDF Twr/Control/Misc  Click here to listen if using Real Player  Click here to listen if using Windows Media Player

Or simply listen in your browser:

Listen right in your browser(in browser, requires Flash)

ESDF 282350Z AUTO 27004KT 9999 NCD 13/11 Q1012

ESDF Flight Activity (Flightaware)

Listeners: 0 out of 926 total

Cooperative Emergency Channel: 123.100
Emergency/Guard: 121.500
Marine Channel 16 (Emergency): 156.800
Ronneby Control: 128.450
Ronneby Tower: 119.200
Sweden Control (South): 134.975

ESGG Gnd/Twr/Control (Archives)
Gothenburg, Sweden

Feed Status: UP

Click on your favorite media player to listen:
Listen with WinAmp to ESGG Gnd/Twr/Control  Listen with iTunes to ESGG Gnd/Twr/Control  Click here to listen if using Real Player  Click here to listen if using Windows Media Player

Or simply listen in your browser:

Listen right in your browser(in browser, requires Flash)

ESGG 282350Z 17004KT CAVOK 14/12 Q1012

ESGG Flight Activity (Flightaware)

Listeners: 0 out of 926 total

City Airport Ops: 130.850
City Airport Tower: 119.050
Emergency/Guard: 121.500
Goteborg Arrival: 120.125
Goteborg Control: 124.675
Goteborg Control: 124.200
Landvetter Ground: 121.900
Landvetter Tower: 118.600

ESMQ Twr/Control (Archives)
Kalmar, Sweden

Feed Status: UP

Click on your favorite media player to listen:
Listen with WinAmp to ESMQ Twr/Control  Listen with iTunes to ESMQ Twr/Control  Click here to listen if using Real Player  Click here to listen if using Windows Media Player

Or simply listen in your browser:

Listen right in your browser(in browser, requires Flash)

ESMQ 282350Z AUTO 29003KT 9999 FEW056/// 15/11 Q1011

ESMQ Flight Activity (Flightaware)

Listeners: 0 out of 926 total

Kalmar Handling: 131.800
Kalmar Tower: 130.800
Ronneby Control: 128.450

ESMS Twr/Sweden Control (Archives)
Svedala, Sweden

Feed Status: UP

Click on your favorite media player to listen:
Listen with WinAmp to ESMS Twr/Sweden Control  Listen with iTunes to ESMS Twr/Sweden Control  Click here to listen if using Real Player  Click here to listen if using Windows Media Player

Or simply listen in your browser:

Listen right in your browser(in browser, requires Flash)

ESMS 282350Z 09003KT CAVOK 11/10 Q1012

ESMS Flight Activity (Flightaware)

Listeners: 1 out of 926 total

Malmo Tower: 118.800
Sweden Control (South): 134.975

ESOE Twr/App (Archives)
Orebro, Sweden

Feed Status: UP

Click on your favorite media player to listen:
Listen with WinAmp to ESOE Twr/App  Listen with iTunes to ESOE Twr/App  Click here to listen if using Real Player  Click here to listen if using Windows Media Player

Or simply listen in your browser:

Listen right in your browser(in browser, requires Flash)

ESOE 282350Z AUTO 22006KT 9999 NCD 12/10 Q1011

ESOE Flight Activity (Flightaware)

Listeners: 0 out of 926 total

Orebro Tower: 120.275
Sweden Control (aircraft only): 131.125

ESOW Twr/CTAF/Control (Archives)
Stockholm, Sweden

Feed Status: UP

Click on your favorite media player to listen:
Listen with WinAmp to ESOW Twr/CTAF/Control  Listen with iTunes to ESOW Twr/CTAF/Control  Click here to listen if using Real Player  Click here to listen if using Windows Media Player

Or simply listen in your browser:

Listen right in your browser(in browser, requires Flash)

ESOW 282350Z AUTO 23005KT 9999 NCD 16/11 Q1011

ESOW Flight Activity (Flightaware)

Listeners: 1 out of 926 total

Johannisberg CTAF: 123.650
Sweden Control: 118.275
Sweden Control: 129.175
Vasteras Tower: 130.600

ESPA Twr/Control (Archives)
Lulea, Sweden

Feed Status: UP

Click on your favorite media player to listen:
Listen with WinAmp to ESPA Twr/Control  Listen with iTunes to ESPA Twr/Control  Click here to listen if using Real Player  Click here to listen if using Windows Media Player

Or simply listen in your browser:

Listen right in your browser(in browser, requires Flash)

ESPA 282350Z AUTO 21004KT 9999 FEW066/// SCT130/// 18/14 Q1008

ESPA Flight Activity (Flightaware)

Listeners: 1 out of 926 total

Emergency/Guard: 121.500
Kallax Control: 125.450
Kallax Tower: 128.200
Sweden Control North: 131.050

ESSA Sweden Control
Stockholm, Sweden

Feed Status: DOWN
Offline since: 2016-05-22 22:46:03 UTC
ESSA 282350Z 24005KT CAVOK 15/14 Q1010 NOSIG

Sweden Control: 118.400
Sweden Control: 129.175
Sweden Control: 128.625
Sweden Control: 127.755
Sweden Control: 124.425
Sweden Control: 124.405
Sweden Control: 120.150
Sweden Control: 118.200
Sweden Control: 118.275
Sweden Control: 131.125
Sweden Control North (when remoted): 131.050

ESSG Misc (Archives)
Ludvika, Sweden

Feed Status: UP

Click on your favorite media player to listen:
Listen with WinAmp to ESSG Misc  Listen with iTunes to ESSG Misc  Click here to listen if using Real Player  Click here to listen if using Windows Media Player

Or simply listen in your browser:

Listen right in your browser(in browser, requires Flash)

ESSG Flight Activity (Flightaware)

Listeners: 1 out of 926 total

Avesta, Gagnef, Siljansnas: 123.550
Borlange Tower: 127.300
Dala-Jarna: 123.350
Emergency/Guard: 121.500
Karlstad: 119.450
Koping, Arboga, Borberg: 123.150
Ludvika CTAF: 122.100
Mora: 129.850
Orebro: 120.275
Orsa: 123.400
Soaring Freq: 123.500
Sweden Control: 131.125
Sweden Control: 129.175
Sweden Control: 118.200
Sweden Control: 132.150

ESSL Twr/App/Control (Archives)
Linkoping, Sweden

Feed Status: UP

Click on your favorite media player to listen:
Listen with WinAmp to ESSL Twr/App/Control  Listen with iTunes to ESSL Twr/App/Control  Click here to listen if using Real Player  Click here to listen if using Windows Media Player

Or simply listen in your browser:

Listen right in your browser(in browser, requires Flash)

ESSL 282350Z AUTO 25002KT 9999 NCD 14/11 Q1011

ESSL Flight Activity (Flightaware)

Listeners: 0 out of 926 total

Emergency/Guard: 121.500
Linkoping Tower: 118.800
Linkoping Tower (Secondary): 123.400
Ostgota Control: 127.350
Ostgota Control: 126.400
Ostgota Control: 135.850
Ostgota Control: 132.950
Ostgota Control: 128.700
Ostgota Control (Malmen Sector): 133.100
Ostgota Control/Sweden Control: 118.400

EVRA Approach (Archives)
Riga, Latvia

Feed Status: UP

Click on your favorite media player to listen:
Listen with WinAmp to EVRA Approach  Listen with iTunes to EVRA Approach  Click here to listen if using Real Player  Click here to listen if using Windows Media Player

Or simply listen in your browser:

Listen right in your browser(in browser, requires Flash)

EVRA 282350Z VRB02KT 9999 BKN011 18/17 Q1012 NOSIG

EVRA Flight Activity (Flightaware)

Listeners: 0 out of 926 total

Riga Approach: 129.925

EVRA CTAF (Archives)
Riga, Latvia

Feed Status: UP

Click on your favorite media player to listen:
Listen with WinAmp to EVRA CTAF  Listen with iTunes to EVRA CTAF  Click here to listen if using Real Player  Click here to listen if using Windows Media Player

Or simply listen in your browser:

Listen right in your browser(in browser, requires Flash)

EVRA 282350Z VRB02KT 9999 BKN011 18/17 Q1012 NOSIG

EVRA Flight Activity (Flightaware)

Listeners: 0 out of 926 total

Riga CTAF: 123.950

EVRA Tower/Guard (Archives)
Riga, Latvia

Feed Status: UP

Click on your favorite media player to listen:
Listen with WinAmp to EVRA Tower/Guard  Listen with iTunes to EVRA Tower/Guard  Click here to listen if using Real Player  Click here to listen if using Windows Media Player

Or simply listen in your browser:

Listen right in your browser(in browser, requires Flash)

EVRA 282350Z VRB02KT 9999 BKN011 18/17 Q1012 NOSIG

EVRA Flight Activity (Flightaware)

Listeners: 0 out of 926 total

Emergency/Guard: 121.500
Riga Tower: 118.100

EYKA Gnd/Twr/FIS (Archives)
Kaunas, Lithuania

Feed Status: UP

Click on your favorite media player to listen:
Listen with WinAmp to EYKA Gnd/Twr/FIS  Listen with iTunes to EYKA Gnd/Twr/FIS  Click here to listen if using Real Player  Click here to listen if using Windows Media Player

Or simply listen in your browser:

Listen right in your browser(in browser, requires Flash)

EYKA 282350Z AUTO 32005KT 280V340 9999 SCT040/// 19/17 Q1012

EYKA Flight Activity (Flightaware)

Listeners: 0 out of 926 total

EYKS (ALEKSOTAS) Info: 135.500
Kaunas Approach: 124.200
Kaunas Info: 124.600
Kaunas Tower: 118.500

EYVI Twr/App/Misc (Archives)
Vilnius, Lithuania

Feed Status: UP

Click on your favorite media player to listen:
Listen with WinAmp to EYVI Twr/App/Misc  Listen with iTunes to EYVI Twr/App/Misc  Click here to listen if using Real Player  Click here to listen if using Windows Media Player

Or simply listen in your browser:

Listen right in your browser(in browser, requires Flash)

EYVI 282350Z 27003KT 230V300 1300 R02/1200VP2000U BR OVC001 19/19 Q1012 NOSIG

EYVI Flight Activity (Flightaware)

Listeners: 0 out of 926 total

Emergency / GUARD: 121.500
FlyLAL, AirBaltic transit services: 131.900
FlyLAL, AirBaltic transit services: 131.600
FlyLAL, AirBaltic transit services: 131.500
Kaunas Approach (EYKA): 124.200
Vilnius Approach: 120.700
Vilnius Control: 132.275
Vilnius Control: 133.425
Vilnius Control: 133.300
Vilnius FIS: 123.850
Vilnius Tower: 118.200
Zokniai A/G (mil): 122.775

EYVI feed is provided by:
Lithuania Virtual Area Control Center

Lithuania Virtual Area Control Center

EYVP CTAF (Archives)
Paluknys, Lithuania

Feed Status: UP

Click on your favorite media player to listen:
Listen with WinAmp to EYVP CTAF  Listen with iTunes to EYVP CTAF  Click here to listen if using Real Player  Click here to listen if using Windows Media Player

Or simply listen in your browser:

Listen right in your browser(in browser, requires Flash)

EYVP Flight Activity (Flightaware)

Listeners: 0 out of 926 total

EYVP Paluknis CTAF: 119.100

LBBG Twr/App (Archives)
Burgas, Bulgaria

Feed Status: UP

Click on your favorite media player to listen:
Listen with WinAmp to LBBG Twr/App  Listen with iTunes to LBBG Twr/App  Click here to listen if using Real Player  Click here to listen if using Windows Media Player

Or simply listen in your browser:

Listen right in your browser(in browser, requires Flash)

LBBG 290000Z 33002KT CAVOK 21/18 Q1013 NOSIG

LBBG Flight Activity (Flightaware)

Listeners: 1 out of 926 total

Burgas Approach: 125.100
Burgas Tower: 118.000

LBSF Radar (Archives)
Sofia, Bulgaria

Feed Status: UP

Click on your favorite media player to listen:
Listen with WinAmp to LBSF Radar  Listen with iTunes to LBSF Radar  Click here to listen if using Real Player  Click here to listen if using Windows Media Player

Or simply listen in your browser:

Listen right in your browser(in browser, requires Flash)

LBSF 290000Z 31004KT CAVOK 19/15 Q1016 NOSIG

LBSF Flight Activity (Flightaware)

Listeners: 0 out of 926 total

Sofia Radar: 135.025

LBSF Sofia Control East (Archives)
Sofia, Bulgaria

Feed Status: UP

Click on your favorite media player to listen:
Listen with WinAmp to LBSF Sofia Control East  Listen with iTunes to LBSF Sofia Control East  Click here to listen if using Real Player  Click here to listen if using Windows Media Player

Or simply listen in your browser:

Listen right in your browser(in browser, requires Flash)

LBSF 290000Z 31004KT CAVOK 19/15 Q1016 NOSIG

LBSF Flight Activity (Flightaware)

Listeners: 2 out of 926 total

Sofia Control (East/Middle Sector): 129.100
Sofia Control (Varna Sector): 134.700

LBSF Tower/Approach (Archives)
Sofia, Bulgaria

Feed Status: UP

Click on your favorite media player to listen:
Listen with WinAmp to LBSF Tower/Approach  Listen with iTunes to LBSF Tower/Approach  Click here to listen if using Real Player  Click here to listen if using Windows Media Player

Or simply listen in your browser:

Listen right in your browser(in browser, requires Flash)

LBSF 290000Z 31004KT CAVOK 19/15 Q1016 NOSIG

LBSF Flight Activity (Flightaware)

Listeners: 1 out of 926 total

Sofia Approach: 123.700
Sofia Tower: 118.100

LBSF Tower/Approach (backup)
Sofia, Bulgaria

Feed Status: DOWN
Offline since: 2016-07-24 08:33:03 UTC
LBSF 290000Z 31004KT CAVOK 19/15 Q1016 NOSIG

Sofia Approach: 123.700
Sofia Tower: 118.100

LBWN Tower/Approach (Archives)
Varna, Bulgaria

Feed Status: UP

Click on your favorite media player to listen:
Listen with WinAmp to LBWN Tower/Approach  Listen with iTunes to LBWN Tower/Approach  Click here to listen if using Real Player  Click here to listen if using Windows Media Player

Or simply listen in your browser:

Listen right in your browser(in browser, requires Flash)

LBWN 290000Z VRB02KT CAVOK 19/18 Q1013 NOSIG

LBWN Flight Activity (Flightaware)

Listeners: 0 out of 926 total

Varna Approach: 121.000
Varna Tower: 119.500

Bordeaux Control (Archives)
Bordeaux, France

Feed Status: UP

Click on your favorite media player to listen:
Listen with WinAmp to Bordeaux Control  Listen with iTunes to Bordeaux Control  Click here to listen if using Real Player  Click here to listen if using Windows Media Player

Or simply listen in your browser:

Listen right in your browser(in browser, requires Flash)

LFBD 282330Z AUTO 01003KT 9999 0900 R23/P2300 R05/1100U R29/P2300 BCFG NSC 18/16 Q1020 BECMG BKN010

LFBD Flight Activity (Flightaware)

Listeners: 0 out of 926 total

Air to Air: 123.450
Bordeaux Control BN FL<300: 127.675
Bordeaux Control L3 FL>300: 134.250
Bordeaux Control R2 FL>300: 133.575
Emergency/Guard: 121.500

NOTE: In case of garbled sound, please refresh the player.

LFBU/LFBL Tower (Archives)
Limoges, France

Feed Status: UP

Click on your favorite media player to listen:
Listen with WinAmp to LFBU/LFBL Tower  Listen with iTunes to LFBU/LFBL Tower  Click here to listen if using Real Player  Click here to listen if using Windows Media Player

Or simply listen in your browser:

Listen right in your browser(in browser, requires Flash)

LFBU 282330Z AUTO 30004KT CAVOK 17/13 Q1020

LFBU Flight Activity (Flightaware)

Listeners: 0 out of 926 total

LFBL Limoges Tower: 124.055
LFBU Angouleme Tower: 123.150
Medoc: 124.325

Bordeaux Control (Archives)
Angouleme, France

Feed Status: UP

Click on your favorite media player to listen:
Listen with WinAmp to Bordeaux Control  Listen with iTunes to Bordeaux Control  Click here to listen if using Real Player  Click here to listen if using Windows Media Player

Or simply listen in your browser:

Listen right in your browser(in browser, requires Flash)

LFBD 282330Z AUTO 01003KT 9999 0900 R23/P2300 R05/1100U R29/P2300 BCFG NSC 18/16 Q1020 BECMG BKN010

LFBD Flight Activity (Flightaware)

Listeners: 0 out of 926 total

Air to Air: 123.450
Bordeaux Control BN FL<300: 127.675
Bordeaux Control L3 FL>300: 134.250
Bordeaux Control R2 FL>300: 133.575
Emergency/Guard: 121.500

NOTE: In case of garbled sound, please refresh the player.

LFBU/LFBL Tower (Archives)
Angouleme, France

Feed Status: UP

Click on your favorite media player to listen:
Listen with WinAmp to LFBU/LFBL Tower  Listen with iTunes to LFBU/LFBL Tower  Click here to listen if using Real Player  Click here to listen if using Windows Media Player

Or simply listen in your browser:

Listen right in your browser(in browser, requires Flash)

LFBU 282330Z AUTO 30004KT CAVOK 17/13 Q1020

LFBU Flight Activity (Flightaware)

Listeners: 0 out of 926 total

LFBL Limoges Tower: 124.055
LFBU Angouleme Tower: 123.150
Medoc: 124.325

LFBZ Tower (Archives)
Biarritz, France

Feed Status: UP

Click on your favorite media player to listen:
Listen with WinAmp to LFBZ Tower  Listen with iTunes to LFBZ Tower  Click here to listen if using Real Player  Click here to listen if using Windows Media Player

Or simply listen in your browser:

Listen right in your browser(in browser, requires Flash)

LFBZ 282330Z AUTO 23001KT CAVOK 18/17 Q1020 TEMPO 3000 BR BKN012

LFBZ Flight Activity (Flightaware)

Listeners: 0 out of 926 total


LFLL Tower
Lyon, France

Feed Status: DOWN
Offline since: 2016-07-27 06:24:03 UTC
LFLL 282330Z 03002KT CAVOK 20/16 Q1018 NOSIG

Lyon Tower: 120.450

LFLP Twr/App
Annecy, France

Feed Status: DOWN
Offline since: 2016-07-27 18:36:03 UTC
LFLP 282330Z AUTO 02004KT 350V050 CAVOK 17/13 Q1019

Annecy Tower: 118.200
Chambery Approach: 121.200
Chambery Info: 123.700
Chambery Tower: 118.300
Lyon Approach: 136.075

NOTE: Frequencies subject to change

LFLY Tower
Bron, France

Feed Status: DOWN
Offline since: 2016-07-27 06:24:03 UTC
LFLY 282330Z AUTO VRB01KT CAVOK 21/16 Q1018 NOSIG

Lyon-Bron Tower: 118.100

LFMN Approach (Archives)
Nice, France

Feed Status: UP

Click on your favorite media player to listen:
Listen with WinAmp to LFMN Approach  Listen with iTunes to LFMN Approach  Click here to listen if using Real Player  Click here to listen if using Windows Media Player

Or simply listen in your browser:

Listen right in your browser(in browser, requires Flash)

LFMN 282330Z 07002KT CAVOK 24/21 Q1014 NOSIG

LFMN Flight Activity (Flightaware)

Listeners: 0 out of 926 total

Nice Approach: 124.175

LFMN Tower (Archives)
Nice, France

Feed Status: UP

Click on your favorite media player to listen:
Listen with WinAmp to LFMN Tower  Listen with iTunes to LFMN Tower  Click here to listen if using Real Player  Click here to listen if using Windows Media Player

Or simply listen in your browser:

Listen right in your browser(in browser, requires Flash)

LFMN 282330Z 07002KT CAVOK 24/21 Q1014 NOSIG

LFMN Flight Activity (Flightaware)

Listeners: 0 out of 926 total

Nice Tower: 118.700

LFPO Departure (Archives)
Paris, France

Feed Status: UP

Click on your favorite media player to listen:
Listen with WinAmp to LFPO Departure  Listen with iTunes to LFPO Departure  Click here to listen if using Real Player  Click here to listen if using Windows Media Player

Or simply listen in your browser:

Listen right in your browser(in browser, requires Flash)

LFPO 282330Z VRB02KT CAVOK 20/15 Q1015 NOSIG

LFPO Flight Activity (Flightaware)

Listeners: 2 out of 926 total

Orly Departure: 127.750

LFSB Tower (Archives)
Basel, Switzerland

Feed Status: UP

Click on your favorite media player to listen:
Listen with WinAmp to LFSB Tower  Listen with iTunes to LFSB Tower  Click here to listen if using Real Player  Click here to listen if using Windows Media Player

Or simply listen in your browser:

Listen right in your browser(in browser, requires Flash)

LFSB 282330Z AUTO 00000KT 9999 FEW039/// BKN100/// ///TCU 18/15 Q1018 BECMG FEW030 BKN055

LFSB Flight Activity (Flightaware)

Listeners: 0 out of 926 total

Mulhouse Tower: 118.300

LGAV Approach (Archives)
Athens, Greece

Feed Status: UP

Click on your favorite media player to listen:
Listen with WinAmp to LGAV Approach  Listen with iTunes to LGAV Approach  Click here to listen if using Real Player  Click here to listen if using Windows Media Player

Or simply listen in your browser:

Listen right in your browser(in browser, requires Flash)

LGAV 282350Z 36007KT CAVOK 27/13 Q1011 NOSIG

LGAV Flight Activity (Flightaware)

Listeners: 1 out of 926 total

Athens Approach (Left Channel): 132.975
Athens Approach (Left Channel): 130.025
Athens Approach Director: 121.400
Athens Departure: 128.950

LHBP Approach (Archives)
Budapest, Hungary

Feed Status: UP

Click on your favorite media player to listen:
Listen with WinAmp to LHBP Approach  Listen with iTunes to LHBP Approach  Click here to listen if using Real Player  Click here to listen if using Windows Media Player

Or simply listen in your browser:

Listen right in your browser(in browser, requires Flash)

LHBP 290000Z VRB02KT 2500 R13L/0800N R31R/0500U BCFG BR NSC 19/19 Q1014 TEMPO 1500

LHBP Flight Activity (Flightaware)

Listeners: 0 out of 926 total

Budapest Approach: 129.700
Budapest Approach: 122.975

LHBP Info (Archives)
Budapest, Hungary

Feed Status: UP

Click on your favorite media player to listen:
Listen with WinAmp to LHBP Info  Listen with iTunes to LHBP Info  Click here to listen if using Real Player  Click here to listen if using Windows Media Player

Or simply listen in your browser:

Listen right in your browser(in browser, requires Flash)

LHBP 290000Z VRB02KT 2500 R13L/0800N R31R/0500U BCFG BR NSC 19/19 Q1014 TEMPO 1500

LHBP Flight Activity (Flightaware)

Listeners: 0 out of 926 total

Budapest Info: 119.350

LHBP Tower (Archives)
Budapest, Hungary

Feed Status: UP

Click on your favorite media player to listen:
Listen with WinAmp to LHBP Tower  Listen with iTunes to LHBP Tower  Click here to listen if using Real Player  Click here to listen if using Windows Media Player

Or simply listen in your browser:

Listen right in your browser(in browser, requires Flash)

LHBP 290000Z VRB02KT 2500 R13L/0800N R31R/0500U BCFG BR NSC 19/19 Q1014 TEMPO 1500

LHBP Flight Activity (Flightaware)

Listeners: 0 out of 926 total

Budapest Tower: 118.100

LHCC Control (East/West) (Archives)
Budapest, Hungary

Feed Status: UP

Click on your favorite media player to listen:
Listen with WinAmp to LHCC Control (East/West)  Listen with iTunes to LHCC Control (East/West)  Click here to listen if using Real Player  Click here to listen if using Windows Media Player

Or simply listen in your browser:

Listen right in your browser(in browser, requires Flash)

LHBP 290000Z VRB02KT 2500 R13L/0800N R31R/0500U BCFG BR NSC 19/19 Q1014 TEMPO 1500

LHBP Flight Activity (Flightaware)

Listeners: 0 out of 926 total

Budapest Control: 133.200
Budapest Control (East): 130.575

LHDC Info/Tower (Archives)
Debrecen, Hungary

Feed Status: UP

Click on your favorite media player to listen:
Listen with WinAmp to LHDC Info/Tower  Listen with iTunes to LHDC Info/Tower  Click here to listen if using Real Player  Click here to listen if using Windows Media Player

Or simply listen in your browser:

Listen right in your browser(in browser, requires Flash)

LHDC 282215Z 31001KT CAVOK 20/18 Q1014 NOSIG

LHDC Flight Activity (Flightaware)

Listeners: 0 out of 926 total

Debrecen Info/Tower: 125.900

Dunaujvaros Airport CTAF (Archives)
Dunaujvaros, Hungary

Feed Status: UP

Click on your favorite media player to listen:
Listen with WinAmp to Dunaujvaros Airport CTAF  Listen with iTunes to Dunaujvaros Airport CTAF  Click here to listen if using Real Player  Click here to listen if using Windows Media Player

Or simply listen in your browser:

Listen right in your browser(in browser, requires Flash)

LHDV Flight Activity (Flightaware)

Listeners: 0 out of 926 total

Dunaujvaros CTAF: 130.800

LHOY CTAF (Archives)
Ocseny, Hungary

Feed Status: UP

Click on your favorite media player to listen:
Listen with WinAmp to LHOY CTAF  Listen with iTunes to LHOY CTAF  Click here to listen if using Real Player  Click here to listen if using Windows Media Player

Or simply listen in your browser:

Listen right in your browser(in browser, requires Flash)

LHOY Flight Activity (Flightaware)

Listeners: 0 out of 926 total

Ocseny CTAF: 122.825

LHPR Info/AFIS (Archives)
Gyor, Hungary

Feed Status: UP

Click on your favorite media player to listen:
Listen with WinAmp to LHPR Info/AFIS  Listen with iTunes to LHPR Info/AFIS  Click here to listen if using Real Player  Click here to listen if using Windows Media Player

Or simply listen in your browser:

Listen right in your browser(in browser, requires Flash)

LHPR 282315Z AUTO 26004KT 9000 NCD 18/17 Q1015 RMK BLU

LHPR Flight Activity (Flightaware)

Listeners: 0 out of 926 total

Gyor AFIS: 129.900

LJLJ Approach
Ljubljana, Slovenia

Feed Status: DOWN
Offline since: 2016-06-25 15:02:03 UTC
LJLJ 282330Z 00000KT 9999 FEW005 SCT060 BKN120 17/17 Q1017 NOSIG

Ljubljana Approach: 135.275

LKPM Tower (Archives)
Pribram, Czech Republic

Feed Status: UP

Click on your favorite media player to listen:
Listen with WinAmp to LKPM Tower  Listen with iTunes to LKPM Tower  Click here to listen if using Real Player  Click here to listen if using Windows Media Player

Or simply listen in your browser:

Listen right in your browser(in browser, requires Flash)

METAR NOT AVAILABLE

LKPM Flight Activity (Flightaware)

Listeners: 0 out of 926 total

Pribram Tower: 118.750

LKAA FIR (High) (Archives)
Prague, Czech Republic

Feed Status: UP

Click on your favorite media player to listen:
Listen with WinAmp to LKAA FIR (High)  Listen with iTunes to LKAA FIR (High)  Click here to listen if using Real Player  Click here to listen if using Windows Media Player

Or simply listen in your browser:

Listen right in your browser(in browser, requires Flash)

LKAA Flight Activity (Flightaware)

Listeners: 2 out of 926 total

LKAA FIR Sector West High / Praha Radar : 132.065

LKAA FIR (Low) (Archives)
Prague, Czech Republic

Feed Status: UP

Click on your favorite media player to listen:
Listen with WinAmp to LKAA FIR (Low)  Listen with iTunes to LKAA FIR (Low)  Click here to listen if using Real Player  Click here to listen if using Windows Media Player

Or simply listen in your browser:

Listen right in your browser(in browser, requires Flash)

LKAA Flight Activity (Flightaware)

Listeners: 0 out of 926 total

LKAA FIR Sector West Low / Praha Radar: 120.275

LKPR Approach (Archives)
Prague, Czech Republic

Feed Status: UP

Click on your favorite media player to listen:
Listen with WinAmp to LKPR Approach  Listen with iTunes to LKPR Approach  Click here to listen if using Real Player  Click here to listen if using Windows Media Player

Or simply listen in your browser:

Listen right in your browser(in browser, requires Flash)

LKPR 282330Z 21009KT CAVOK 19/14 Q1015 NOSIG

LKPR Flight Activity (Flightaware)

Listeners: 1 out of 926 total

Prague Approach/Radar: 127.575

LKPR Clearance Del (Archives)
Prague, Czech Republic

Feed Status: UP

Click on your favorite media player to listen:
Listen with WinAmp to LKPR Clearance Del  Listen with iTunes to LKPR Clearance Del  Click here to listen if using Real Player  Click here to listen if using Windows Media Player

Or simply listen in your browser:

Listen right in your browser(in browser, requires Flash)

LKPR 282330Z 21009KT CAVOK 19/14 Q1015 NOSIG

LKPR Flight Activity (Flightaware)

Listeners: 0 out of 926 total


LKPR Director/Ruzyne Radar (Archives)
Prague, Czech Republic

Feed Status: UP

Click on your favorite media player to listen:
Listen with WinAmp to LKPR Director/Ruzyne Radar  Listen with iTunes to LKPR Director/Ruzyne Radar  Click here to listen if using Real Player  Click here to listen if using Windows Media Player

Or simply listen in your browser:

Listen right in your browser(in browser, requires Flash)

LKPR 282330Z 21009KT CAVOK 19/14 Q1015 NOSIG

LKPR Flight Activity (Flightaware)

Listeners: 0 out of 926 total

Prague Director/Ruzyne Radar: 119.000

NOTE: Only active during peak times, typically 2-6PM local time (CET)

LKPR Ground (Archives)
Prague, Czech Republic

Feed Status: UP

Click on your favorite media player to listen:
Listen with WinAmp to LKPR Ground  Listen with iTunes to LKPR Ground  Click here to listen if using Real Player  Click here to listen if using Windows Media Player

Or simply listen in your browser:

Listen right in your browser(in browser, requires Flash)

LKPR 282330Z 21009KT CAVOK 19/14 Q1015 NOSIG

LKPR Flight Activity (Flightaware)

Listeners: 0 out of 926 total

Prague/Ruzyne Clearance Delivery: 120.050
Prague/Ruzyne Ground: 121.900

LKPR Tower (Archives)
Prague, Czech Republic

Feed Status: UP

Click on your favorite media player to listen:
Listen with WinAmp to LKPR Tower  Listen with iTunes to LKPR Tower  Click here to listen if using Real Player  Click here to listen if using Windows Media Player

Or simply listen in your browser:

Listen right in your browser(in browser, requires Flash)

LKPR 282330Z 21009KT CAVOK 19/14 Q1015 NOSIG

LKPR Flight Activity (Flightaware)

Listeners: 1 out of 926 total

Prague/Ruzyne Tower: 118.100

LKTB Gnd/Twr/Radar (Archives)
Brno, Czech Republic

Feed Status: UP

Click on your favorite media player to listen:
Listen with WinAmp to LKTB Gnd/Twr/Radar  Listen with iTunes to LKTB Gnd/Twr/Radar  Click here to listen if using Real Player  Click here to listen if using Windows Media Player

Or simply listen in your browser:

Listen right in your browser(in browser, requires Flash)

LKTB 282330Z 00000KT 8000 NSC 18/17 Q1015 NOSIG

LKTB Flight Activity (Flightaware)

Listeners: 0 out of 926 total

Brno Ground: 125.425
Brno Handling: 131.800
Brno Radar (Approach): 127.350
Brno Tower: 119.600

Santa Maria Control (Oceanic) (Archives)
Santa Maria Island (Azores), Portugal

Feed Status: UP

Click on your favorite media player to listen:
Listen with WinAmp to Santa Maria Control (Oceanic)  Listen with iTunes to Santa Maria Control (Oceanic)  Click here to listen if using Real Player  Click here to listen if using Windows Media Player

Or simply listen in your browser:

Listen right in your browser(in browser, requires Flash)

LPAZ 282330Z 06006KT 9999 FEW020 SCT048 21/16 Q1028

LPAZ Flight Activity (Flightaware)

Listeners: 0 out of 926 total

Emergency/Guard: 121.500
LPHR (Horta) Approach: 120.600
LPLA (Terceira) Approach: 135.000
LPLA (Terceira) Tower: 122.100
LPPD (Ponta Delgada) Approach: 119.400
Ponta Delgada Ground: 131.600
Santa Maria Approach: 119.100
Santa Maria Control: 132.150

LPLA Gnd/Twr/App (Archives)
Lajes, Portugal

Feed Status: UP

Click on your favorite media player to listen:
Listen with WinAmp to LPLA Gnd/Twr/App  Listen with iTunes to LPLA Gnd/Twr/App  Click here to listen if using Real Player  Click here to listen if using Windows Media Player

Or simply listen in your browser:

Listen right in your browser(in browser, requires Flash)

LPLA 282300Z /////KT 9999 FEW020 21/18 Q1030

LPLA Flight Activity (Flightaware)

Listeners: 0 out of 926 total

Lajes Approach: 135.000
Lajes Ground: 121.900
Lajes Tower: 122.100

LRCL Twr/App (Archives)
Cluj-Napoca, Romania

Feed Status: UP

Click on your favorite media player to listen:
Listen with WinAmp to LRCL Twr/App  Listen with iTunes to LRCL Twr/App  Click here to listen if using Real Player  Click here to listen if using Windows Media Player

Or simply listen in your browser:

Listen right in your browser(in browser, requires Flash)

LRCL 282300Z 26004KT CAVOK 20/18 Q1015

LRCL Flight Activity (Flightaware)

Listeners: 0 out of 926 total

Cluj Approach: 125.100
Cluj Tower: 134.400

LROP Bucharest Ground (Archives)
Bucharest, Romania

Feed Status: UP

Click on your favorite media player to listen:
Listen with WinAmp to LROP Bucharest Ground  Listen with iTunes to LROP Bucharest Ground  Click here to listen if using Real Player  Click here to listen if using Windows Media Player

Or simply listen in your browser:

Listen right in your browser(in browser, requires Flash)

LROP 282330Z 03004KT CAVOK 22/18 Q1014 NOSIG

LROP Flight Activity (Flightaware)

Listeners: 0 out of 926 total

Bucharest Ground: 121.700

LROP Bucharest Twr/App (Archives)
Bucharest, Romania

Feed Status: UP

Click on your favorite media player to listen:
Listen with WinAmp to LROP Bucharest Twr/App  Listen with iTunes to LROP Bucharest Twr/App  Click here to listen if using Real Player  Click here to listen if using Windows Media Player

Or simply listen in your browser:

Listen right in your browser(in browser, requires Flash)

LROP 282330Z 03004KT CAVOK 22/18 Q1014 NOSIG

LROP Flight Activity (Flightaware)

Listeners: 2 out of 926 total

Bucharest Approach: 118.250
Bucharest Approach (alternate): 120.600
Bucharest Radar (alternate): 126.725
Bucharest Radar (Arges Mid sector): 121.175
Bucharest Radar (Arges Top Sector): 123.265
Bucharest Radar (Koman Mid Sector): 124.975
Bucharest Radar (Koman Top Sector): 123.900
Bucharest Radar (Nerdi Mid Sector): 125.150
Bucharest Radar (Nerdi Top Sector): 122.025
Bucharest Tower: 120.900
Bucharest Tower (alternate): 121.850

Note: Bucharest Radar on left stereo channel and Bucharest Tower/Approach on right stereo channel.

LRTR Tower (Archives)
Timisoara, Romania

Feed Status: UP

Click on your favorite media player to listen:
Listen with WinAmp to LRTR Tower  Listen with iTunes to LRTR Tower  Click here to listen if using Real Player  Click here to listen if using Windows Media Player

Or simply listen in your browser:

Listen right in your browser(in browser, requires Flash)

LRTR 282330Z 26007KT 3000 +TSRA BR BKN054CB 21/21 Q1015

LRTR Flight Activity (Flightaware)

Listeners: 0 out of 926 total

ARAD Approach: 127.250
Timisoara Tower: 120.100

LSGG Tower (Archives)
Geneva, Switzerland

Feed Status: UP

Click on your favorite media player to listen:
Listen with WinAmp to LSGG Tower  Listen with iTunes to LSGG Tower  Click here to listen if using Real Player  Click here to listen if using Windows Media Player

Or simply listen in your browser:

Listen right in your browser(in browser, requires Flash)

LSGG 282350Z VRB01KT CAVOK 16/14 Q1019 NOSIG

LSGG Flight Activity (Flightaware)

Listeners: 0 out of 926 total

Geneva Tower: 118.700

Geneva Live Feed Web Site

LSGS Gnd/Twr/App (Archives)
Sion, Switzerland

Feed Status: UP

Click on your favorite media player to listen:
Listen with WinAmp to LSGS Gnd/Twr/App  Listen with iTunes to LSGS Gnd/Twr/App  Click here to listen if using Real Player  Click here to listen if using Windows Media Player

Or simply listen in your browser:

Listen right in your browser(in browser, requires Flash)

LSGS 281750Z 26015KT 9999 SCT090 25/12 Q1016

LSGS Flight Activity (Flightaware)

Listeners: 0 out of 926 total

Alpine Jet Service Handling: 131.675
Sion Airport Handling: 131.475
Sion Approach (IFR ARR MIL OFF): 126.825
Sion Ground: 121.700
Sion Tower: 118.275

Geneva Live Feed Web Site

LSZB Tower/App/Dep (Archives)
Bern, Switzerland

Feed Status: UP

Click on your favorite media player to listen:
Listen with WinAmp to LSZB Tower/App/Dep  Listen with iTunes to LSZB Tower/App/Dep  Click here to listen if using Real Player  Click here to listen if using Windows Media Player

Or simply listen in your browser:

Listen right in your browser(in browser, requires Flash)

LSZB 282350Z AUTO VRB02KT 9999 FEW050 OVC070 16/15 Q1019

LSZB Flight Activity (Flightaware)

Listeners: 0 out of 926 total

LSZB Arrival/Departure (left channel): 127.325
LSZB Tower (right channel): 121.025

LSZG Tower (Archives)
Grenchen, Switzerland

Feed Status: UP

Click on your favorite media player to listen:
Listen with WinAmp to LSZG Tower  Listen with iTunes to LSZG Tower  Click here to listen if using Real Player  Click here to listen if using Windows Media Player

Or simply listen in your browser:

Listen right in your browser(in browser, requires Flash)

LSZG 282350Z AUTO 23005KT 9999 OVC060 19/15 Q1018

LSZG Flight Activity (Flightaware)

Listeners: 0 out of 926 total

Grenchen Tower: 120.100

LSZH Approach (East) (Archives)
Zurich, Switzerland

Feed Status: UP

Click on your favorite media player to listen:
Listen with WinAmp to LSZH Approach (East)  Listen with iTunes to LSZH Approach (East)  Click here to listen if using Real Player  Click here to listen if using Windows Media Player

Or simply listen in your browser:

Listen right in your browser(in browser, requires Flash)

LSZH 282350Z VRB01KT 9999 FEW040 SCT050 BKN075 18/15 Q1018 NOSIG

LSZH Flight Activity (Flightaware)

Listeners: 0 out of 926 total

Zurich Approach (East): 135.225

LSZH Approach (Final) (Archives)
Zurich, Switzerland

Feed Status: UP

Click on your favorite media player to listen:
Listen with WinAmp to LSZH Approach (Final)  Listen with iTunes to LSZH Approach (Final)  Click here to listen if using Real Player  Click here to listen if using Windows Media Player

Or simply listen in your browser:

Listen right in your browser(in browser, requires Flash)

LSZH 282350Z VRB01KT 9999 FEW040 SCT050 BKN075 18/15 Q1018 NOSIG

LSZH Flight Activity (Flightaware)

Listeners: 2 out of 926 total

Zurich Approach (Final): 125.325

LSZH Approach (West) (Archives)
Zurich, Switzerland

Feed Status: UP

Click on your favorite media player to listen:
Listen with WinAmp to LSZH Approach (West)  Listen with iTunes to LSZH Approach (West)  Click here to listen if using Real Player  Click here to listen if using Windows Media Player

Or simply listen in your browser:

Listen right in your browser(in browser, requires Flash)

LSZH 282350Z VRB01KT 9999 FEW040 SCT050 BKN075 18/15 Q1018 NOSIG

LSZH Flight Activity (Flightaware)

Listeners: 0 out of 926 total

Zurich Approach (West): 118.000

LSZH Apron (South) (Archives)
Zurich, Switzerland

Feed Status: UP

Click on your favorite media player to listen:
Listen with WinAmp to LSZH Apron (South)  Listen with iTunes to LSZH Apron (South)  Click here to listen if using Real Player  Click here to listen if using Windows Media Player

Or simply listen in your browser:

Listen right in your browser(in browser, requires Flash)

LSZH 282350Z VRB01KT 9999 FEW040 SCT050 BKN075 18/15 Q1018 NOSIG

LSZH Flight Activity (Flightaware)

Listeners: 0 out of 926 total

Zurich Apron (South): 121.750

LSZH Apron (West) (Archives)
Zurich, Switzerland

Feed Status: UP

Click on your favorite media player to listen:
Listen with WinAmp to LSZH Apron (West)  Listen with iTunes to LSZH Apron (West)  Click here to listen if using Real Player  Click here to listen if using Windows Media Player

Or simply listen in your browser:

Listen right in your browser(in browser, requires Flash)

LSZH 282350Z VRB01KT 9999 FEW040 SCT050 BKN075 18/15 Q1018 NOSIG

LSZH Flight Activity (Flightaware)

Listeners: 1 out of 926 total

Zurich Apron (West): 121.850

LSZH Clearance Delivery (Archives)
Zurich, Switzerland

Feed Status: UP

Click on your favorite media player to listen:
Listen with WinAmp to LSZH Clearance Delivery  Listen with iTunes to LSZH Clearance Delivery  Click here to listen if using Real Player  Click here to listen if using Windows Media Player

Or simply listen in your browser:

Listen right in your browser(in browser, requires Flash)

LSZH 282350Z VRB01KT 9999 FEW040 SCT050 BKN075 18/15 Q1018 NOSIG

LSZH Flight Activity (Flightaware)

Listeners: 0 out of 926 total

Zurich Clearance Delivery: 121.925

LSZH Departure (Archives)
Zurich, Switzerland

Feed Status: UP

Click on your favorite media player to listen:
Listen with WinAmp to LSZH Departure  Listen with iTunes to LSZH Departure  Click here to listen if using Real Player  Click here to listen if using Windows Media Player

Or simply listen in your browser:

Listen right in your browser(in browser, requires Flash)

LSZH 282350Z VRB01KT 9999 FEW040 SCT050 BKN075 18/15 Q1018 NOSIG

LSZH Flight Activity (Flightaware)

Listeners: 0 out of 926 total

Zurich Departure: 125.950

LSZH Radar (Archives)
Zurich, Switzerland

Feed Status: UP

Click on your favorite media player to listen:
Listen with WinAmp to LSZH Radar  Listen with iTunes to LSZH Radar  Click here to listen if using Real Player  Click here to listen if using Windows Media Player

Or simply listen in your browser:

Listen right in your browser(in browser, requires Flash)

LSZH 282350Z VRB01KT 9999 FEW040 SCT050 BKN075 18/15 Q1018 NOSIG

LSZH Flight Activity (Flightaware)

Listeners: 1 out of 926 total

Zurich Radar ACC (-FL240 East): 133.900
Zurich Radar ACC (-FL240 North): 136.150
Zurich Radar ACC (-FL240 South): 128.050
Zurich Radar ACC (-FL240 West): 135.675
Zurich Radar ACC (FL250-280): 133.050
Zurich Radar ACC (FL290-320): 132.815
Zurich Radar ACC (FL330-350): 134.600
Zurich Radar ACC (FL360+): 133.400

LSZH Tower #1 (Archives)
Zurich, Switzerland

Feed Status: UP

Click on your favorite media player to listen:
Listen with WinAmp to LSZH Tower #1  Listen with iTunes to LSZH Tower #1  Click here to listen if using Real Player  Click here to listen if using Windows Media Player

Or simply listen in your browser:

Listen right in your browser(in browser, requires Flash)

LSZH 282350Z VRB01KT 9999 FEW040 SCT050 BKN075 18/15 Q1018 NOSIG

LSZH Flight Activity (Flightaware)

Listeners: 4 out of 926 total

Zurich Tower: 120.225
Zurich Tower: 119.700
Zurich Tower: 118.100

LSZH Tower #3 (Archives)
Zurich, Switzerland

Feed Status: UP

Click on your favorite media player to listen:
Listen with WinAmp to LSZH Tower #3  Listen with iTunes to LSZH Tower #3  Click here to listen if using Real Player  Click here to listen if using Windows Media Player

Or simply listen in your browser:

Listen right in your browser(in browser, requires Flash)

LSZH 282350Z VRB01KT 9999 FEW040 SCT050 BKN075 18/15 Q1018 NOSIG

LSZH Flight Activity (Flightaware)

Listeners: 0 out of 926 total

Zurich Tower: 118.100

LSZL Tower (Archives)
Locarno, Switzerland

Feed Status: UP

Click on your favorite media player to listen:
Listen with WinAmp to LSZL Tower  Listen with iTunes to LSZL Tower  Click here to listen if using Real Player  Click here to listen if using Windows Media Player

Or simply listen in your browser:

Listen right in your browser(in browser, requires Flash)

LSZL Flight Activity (Flightaware)

Listeners: 0 out of 926 total

Locarno Tower: 134.825

LSZR Tower
Altenrhein, Switzerland

Feed Status: DOWN
Offline since: 2016-07-05 08:07:03 UTC
LSZR 282350Z AUTO VRB02KT 9999 BKN045 21/14 Q1018

Altenrhein Tower: 135.425

LUKK Approach
Chisinau, Moldova

Feed Status: DOWN
Offline since: 2016-07-25 23:51:04 UTC
LUKK 290000Z 18002KT CAVOK 21/15 Q1014 R08/CLRD// NOSIG

Chisinau Approach: 133.300

LUKK Control (Archives)
Chisinau, Moldova

Feed Status: UP

Click on your favorite media player to listen:
Listen with WinAmp to LUKK Control  Listen with iTunes to LUKK Control  Click here to listen if using Real Player  Click here to listen if using Windows Media Player

Or simply listen in your browser:

Listen right in your browser(in browser, requires Flash)

LUKK 290000Z 18002KT CAVOK 21/15 Q1014 R08/CLRD// NOSIG

LUKK Flight Activity (Flightaware)

Listeners: 0 out of 926 total

Chisinau ACC: 128.975
Chisinau ACC: 130.975

LUKK Gnd/Twr/App/ACC
Chisinau, Moldova

Feed Status: DOWN
Offline since: 2016-06-07 03:05:03 UTC
LUKK 290000Z 18002KT CAVOK 21/15 Q1014 R08/CLRD// NOSIG

Chisinau ACC: 130.975
Chisinau ACC: 128.975
Chisinau Approach: 133.300
Chisinau Ground: 121.800
Chisinau Tower: 118.100

LUKK Ground (Archives)
Chisinau, Moldova

Feed Status: UP

Click on your favorite media player to listen:
Listen with WinAmp to LUKK Ground  Listen with iTunes to LUKK Ground  Click here to listen if using Real Player  Click here to listen if using Windows Media Player

Or simply listen in your browser:

Listen right in your browser(in browser, requires Flash)

LUKK 290000Z 18002KT CAVOK 21/15 Q1014 R08/CLRD// NOSIG

LUKK Flight Activity (Flightaware)

Listeners: 0 out of 926 total

Chisinau Ground: 121.800

LUKK Tower
Chisinau, Moldova

Feed Status: DOWN
Offline since: 2016-07-25 23:51:04 UTC
LUKK 290000Z 18002KT CAVOK 21/15 Q1014 R08/CLRD// NOSIG

Chisinau Tower: 118.100

LWSK ACC (Lower) (Archives)
Petrovec, Macedonia, Republic of

Feed Status: UP

Click on your favorite media player to listen:
Listen with WinAmp to LWSK ACC (Lower)  Listen with iTunes to LWSK ACC (Lower)  Click here to listen if using Real Player  Click here to listen if using Windows Media Player

Or simply listen in your browser:

Listen right in your browser(in browser, requires Flash)

LWSK 282330Z 00000KT 9999 FEW050 21/16 Q1015 NOSIG

LWSK Flight Activity (Flightaware)

Listeners: 0 out of 926 total

Skopje Control (Lower): 119.375

LWSK ACC (Upper) (Archives)
Petrovec, Macedonia, Republic of

Feed Status: UP

Click on your favorite media player to listen:
Listen with WinAmp to LWSK ACC (Upper)  Listen with iTunes to LWSK ACC (Upper)  Click here to listen if using Real Player  Click here to listen if using Windows Media Player

Or simply listen in your browser:

Listen right in your browser(in browser, requires Flash)

LWSK 282330Z 00000KT 9999 FEW050 21/16 Q1015 NOSIG

LWSK Flight Activity (Flightaware)

Listeners: 0 out of 926 total

Skopje Control (Upper): 120.015

LWSK Approach (Archives)
Petrovec, Macedonia, Republic of

Feed Status: UP

Click on your favorite media player to listen:
Listen with WinAmp to LWSK Approach  Listen with iTunes to LWSK Approach  Click here to listen if using Real Player  Click here to listen if using Windows Media Player

Or simply listen in your browser:

Listen right in your browser(in browser, requires Flash)

LWSK 282330Z 00000KT 9999 FEW050 21/16 Q1015 NOSIG

LWSK Flight Activity (Flightaware)

Listeners: 0 out of 926 total

Skopje Approach/Departure: 120.300

LWSK Tower (Archives)
Petrovec, Macedonia, Republic of

Feed Status: UP

Click on your favorite media player to listen:
Listen with WinAmp to LWSK Tower  Listen with iTunes to LWSK Tower  Click here to listen if using Real Player  Click here to listen if using Windows Media Player

Or simply listen in your browser:

Listen right in your browser(in browser, requires Flash)

LWSK 282330Z 00000KT 9999 FEW050 21/16 Q1015 NOSIG

LWSK Flight Activity (Flightaware)

Listeners: 0 out of 926 total

Skopje Tower: 118.500

LZIB Bratislava Control (Archives)
Bratislava, Slovakia

Feed Status: UP

Click on your favorite media player to listen:
Listen with WinAmp to LZIB Bratislava Control  Listen with iTunes to LZIB Bratislava Control  Click here to listen if using Real Player  Click here to listen if using Windows Media Player

Or simply listen in your browser:

Listen right in your browser(in browser, requires Flash)

LZIB 290000Z VRB02KT CAVOK 21/16 Q1014

LZIB Flight Activity (Flightaware)

Listeners: 0 out of 926 total

Bratislava Radar: 134.475
Bratislava Radar: 132.355

(c) LPS

LZIB Del/Twr/App (Archives)
Bratislava, Slovakia

Feed Status: UP

Click on your favorite media player to listen:
Listen with WinAmp to LZIB Del/Twr/App  Listen with iTunes to LZIB Del/Twr/App  Click here to listen if using Real Player  Click here to listen if using Windows Media Player

Or simply listen in your browser:

Listen right in your browser(in browser, requires Flash)

LZIB 290000Z VRB02KT CAVOK 21/16 Q1014

LZIB Flight Activity (Flightaware)

Listeners: 0 out of 926 total

Stefanik Approach: 120.900
Stefanik Clearance Delivery: 118.975
Stefanik Tower: 118.300
Stefanik Tower (backup): 118.700

(c) LPS

LZKZ Gnd/Twr/App (Archives)
Kosice, Slovakia

Feed Status: UP

Click on your favorite media player to listen:
Listen with WinAmp to LZKZ Gnd/Twr/App  Listen with iTunes to LZKZ Gnd/Twr/App  Click here to listen if using Real Player  Click here to listen if using Windows Media Player

Or simply listen in your browser:

Listen right in your browser(in browser, requires Flash)

LZKZ 290000Z VRB02KT 9999 SCT005 18/17 Q1014

LZKZ Flight Activity (Flightaware)

Listeners: 0 out of 926 total

Kosice Approach: 119.850
Kosice Ground: 121.700
Kosice Handling: 131.850
Kosice Tower: 120.400

LZPE CTAF/UNICOM (Archives)
Prievidza, Slovakia

Feed Status: UP

Click on your favorite media player to listen:
Listen with WinAmp to LZPE CTAF/UNICOM  Listen with iTunes to LZPE CTAF/UNICOM  Click here to listen if using Real Player  Click here to listen if using Windows Media Player

Or simply listen in your browser:

Listen right in your browser(in browser, requires Flash)

LZPE Flight Activity (Flightaware)

Listeners: 0 out of 926 total

Prievidza CTAF/UNICOM: 122.600

LZTN CTAF (Archives)
Trencin, Slovakia

Feed Status: UP

Click on your favorite media player to listen:
Listen with WinAmp to LZTN CTAF  Listen with iTunes to LZTN CTAF  Click here to listen if using Real Player  Click here to listen if using Windows Media Player

Or simply listen in your browser:

Listen right in your browser(in browser, requires Flash)

LZTN Flight Activity (Flightaware)

Listeners: 0 out of 926 total

Trencin Traffic: 123.600

UKBB Del/Gnd/Twr/Center
Kyiv, Ukraine

Feed Status: DOWN
Offline since: 2016-07-29 00:14:03 UTC
UKBB 282330Z 18002MPS CAVOK 19/17 Q1014 R88/CLRD// NOSIG

Kyiv Approach: 128.175
Kyiv Approach: 127.725
Kyiv Approach: 124.675
Kyiv Approach: 122.775
Kyiv Center: 127.725
Kyiv Clearance Delivery: 130.275
Kyiv Ground: 127.925
Kyiv Ground: 118.050
Kyiv Radar: 135.825
Kyiv Radar: 135.150
Kyiv Radar: 133.050
Kyiv Radar: 132.375
Kyiv Radar: 131.375
Kyiv Radar: 125.300
Kyiv Radar: 120.625
Kyiv Radar: 136.400
Kyiv Tower: 119.650
Kyiv Tower: 119.300

UKLL Radar
Lviv, Ukraine

Feed Status: DOWN
Offline since: 2016-07-27 18:07:03 UTC
UKLL 282330Z 12002MPS 6000 NSC 17/16 Q1015 R31/290060 NOSIG

Lviv Radar 1: 131.600
Lviv Radar 2: 134.050
Lviv Radar 3: 118.675

UKLL Twr/App
Lviv, Ukraine

Feed Status: DOWN
Offline since: 2016-07-27 18:07:03 UTC
UKLL 282330Z 12002MPS 6000 NSC 17/16 Q1015 R31/290060 NOSIG

Jagellon Airport: 135.900
Lviv Approach: 120.525
Lviv Tower: 128.000
Tsuniv Airport: 118.350

UKLL Twr/App/Radar
Lviv, Ukraine

Feed Status: DOWN
Offline since: 2016-07-27 18:07:03 UTC
UKLL 282330Z 12002MPS 6000 NSC 17/16 Q1015 R31/290060 NOSIG

Jagellon Airport: 135.900
Lviv Approach: 120.525
Lviv Radar 1: 131.600
Lviv Radar 2: 134.050
Lviv Radar 3: 118.675
Lviv Tower: 128.000
Tsuniv Airport: 118.350

ULLI Gnd/Twr/App (Archives)
Saint Petersburg, Russia

Feed Status: UP

Click on your favorite media player to listen:
Listen with WinAmp to ULLI Gnd/Twr/App  Listen with iTunes to ULLI Gnd/Twr/App  Click here to listen if using Real Player  Click here to listen if using Windows Media Player

Or simply listen in your browser:

Listen right in your browser(in browser, requires Flash)

ULLI 282330Z 18002MPS 130V250 9999 SCT033CB BKN046 21/18 Q1010 R28L/190055 NOSIG

ULLI Flight Activity (Flightaware)

Listeners: 2 out of 926 total

Circle: 120.300
St. Petersburg Approach: 119.300
St. Petersburg Approach: 125.900
St. Petersburg Control: 135.600
St. Petersburg Tower: 118.700
St. Petersburg Tower: 118.100
St. Petersburg Transit: 131.800

URKK Gnd/Twr/App (Archives)
Krasnodar, Russia

Feed Status: UP

Click on your favorite media player to listen:
Listen with WinAmp to URKK Gnd/Twr/App  Listen with iTunes to URKK Gnd/Twr/App  Click here to listen if using Real Player  Click here to listen if using Windows Media Player

Or simply listen in your browser:

Listen right in your browser(in browser, requires Flash)

URKK 282330Z 06003MPS 8000 NSC 21/16 Q1012 R23C/CLRD60 NOSIG RMK QFE755

URKK Flight Activity (Flightaware)

Listeners: 1 out of 926 total

Krasnodar Approach: 129.600
Krasnodar Ground: 119.000
Krasnodar Radar: 121.300
Krasnodar Tower: 118.200

URMT Twr/App/Control (Archives)
Stavropol, Russia

Feed Status: UP

Click on your favorite media player to listen:
Listen with WinAmp to URMT Twr/App/Control  Listen with iTunes to URMT Twr/App/Control  Click here to listen if using Real Player  Click here to listen if using Windows Media Player

Or simply listen in your browser:

Listen right in your browser(in browser, requires Flash)

URMT 282330Z 09003MPS CAVOK 18/14 Q1015 R07/010070 NOSIG RMK QFE721

URMT Flight Activity (Flightaware)

Listeners: 0 out of 926 total

Stavropol Approach: 120.300
Stavropol Control: 118.250
Stavropol Tower: 120.900

URSS Gnd/Twr/App (Archives)
Sochi, Russia

Feed Status: UP

Click on your favorite media player to listen:
Listen with WinAmp to URSS Gnd/Twr/App  Listen with iTunes to URSS Gnd/Twr/App  Click here to listen if using Real Player  Click here to listen if using Windows Media Player

Or simply listen in your browser:

Listen right in your browser(in browser, requires Flash)

URSS 282330Z 08004MPS 9999 NSC 21/17 Q1011 WS ALL RWY R06/090070 R02/090070 NOSIG RMK R02/05004MPS QFE757

URSS Flight Activity (Flightaware)

Listeners: 0 out of 926 total

Sochi Approach: 118.300
Sochi Approach: 119.700
Sochi District (Small Aircraft): 118.500
Sochi Start: 121.200
Sochi Taxi: 119.000
Sochi Tower: 124.600

UUEE Twr/App/Radar (Archives)
Moscow, Russia

Feed Status: UP

Click on your favorite media player to listen:
Listen with WinAmp to UUEE Twr/App/Radar  Listen with iTunes to UUEE Twr/App/Radar  Click here to listen if using Real Player  Click here to listen if using Windows Media Player

Or simply listen in your browser:

Listen right in your browser(in browser, requires Flash)

UUEE 282330Z 01001MPS 8000 NSC 18/17 Q1014 R24L/CLRD62 R24R/////// NOSIG

UUEE Flight Activity (Flightaware)

Listeners: 2 out of 926 total

AFL ACC: 131.675
Moscow Radar: 118.100
Moscow TMA App (East 3600+): 131.200
Moscow TMA App (West 3600-): 122.700
Moscow TMA Approach: 128.000
Moscow TMA Approach: 123.400
Moscow TMA Approach (West 3600m+): 127.200
Moscow Tower: 131.500
UUWW Ground: 120.450
UUWW Radar: 126.000
UUWW Tower: 118.300

NOTE: If archived recordings are used you please provide a link back to http://radioscanner.ru (and to LiveATC.net)

Moscow TMA (UUDD Region) (Archives)
Moscow, Russia

Feed Status: UP

Click on your favorite media player to listen:
Listen with WinAmp to Moscow TMA (UUDD Region)  Listen with iTunes to Moscow TMA (UUDD Region)  Click here to listen if using Real Player  Click here to listen if using Windows Media Player

Or simply listen in your browser:

Listen right in your browser(in browser, requires Flash)

UUWW 282330Z 24002MPS 6000 NSC 19/18 Q1014 R24/000070 NOSIG

UUWW Flight Activity (Flightaware)

Listeners: 1 out of 926 total

Moscow TMA Approach: 134.000
Moscow TMA Approach: 125.300
Moscow TMA Approach: 129.800

NOTE: If archived recordings are used you please provide a link back to http://radioscanner.ru (and to LiveATC.net)

UUWW Gnd/Twr/App/ACC (Archives)
Moscow, Russia

Feed Status: UP

Click on your favorite media player to listen:
Listen with WinAmp to UUWW Gnd/Twr/App/ACC  Listen with iTunes to UUWW Gnd/Twr/App/ACC  Click here to listen if using Real Player  Click here to listen if using Windows Media Player

Or simply listen in your browser:

Listen right in your browser(in browser, requires Flash)

UUWW 282330Z 24002MPS 6000 NSC 19/18 Q1014 R24/000070 NOSIG

UUWW Flight Activity (Flightaware)

Listeners: 0 out of 926 total

ACC AFL: 131.675
ACC SBI: 124.900
ACC TSO: 134.800
Emergency/Guard: 121.500
MSK TMA App 3 (right channel): 128.000
MSK TMA App 4 (right channel): 123.400
MSK TMA App 5 (left channel): 125.300
MSK TMA App 6 (left channel): 134.000
UUWW Approach (right channel): 122.300
UUWW Approach 2 (left channel): 127.300
UUWW Ground: 120.450
UUWW Radar (left channel): 126.000
UUWW Tower (right channel): 118.300

NOTE: If archived recordings are used you please provide a link back to http://radioscanner.ru (and to LiveATC.net)